Wetterdaten: Samstag, 28.03.2026
Datum Zeit Temp. Aussen Temp. o. S. Temp +5cm Feuchte Auss Luftdruck Regen Sonnenschein Solar Windböen Empfang
28.03.2026 00:00 7,4 °C 6,7 °C 2,8 °C 74 % 1019,9 hPa 0,0 l/m² 0 min 0 W/m² 6,4 km/h (2 Bft) 100,00 %
28.03.2026 00:02 7,3 °C 6,7 °C 2,8 °C 75 % 1019,9 hPa 0,0 l/m² 0 min 0 W/m² 9,7 km/h (2 Bft) 97,67 %
28.03.2026 00:04 7,3 °C 6,7 °C 2,8 °C 75 % 1019,8 hPa 0,0 l/m² 0 min 0 W/m² 9,7 km/h (2 Bft) 97,87 %
28.03.2026 00:07 7,3 °C 6,7 °C 2,8 °C 75 % 1019,9 hPa 0,0 l/m² 0 min 0 W/m² 6,4 km/h (2 Bft) 96,97 %
28.03.2026 00:08 7,3 °C 6,7 °C 2,8 °C 75 % 1019,9 hPa 0,0 l/m² 0 min 0 W/m² 9,7 km/h (2 Bft) 100,00 %
28.03.2026 00:10 7,3 °C 6,7 °C 2,8 °C 75 % 1019,9 hPa 0,0 l/m² 0 min 0 W/m² 3,2 km/h (1 Bft) 100,00 %
28.03.2026 00:12 7,3 °C 6,7 °C 2,8 °C 75 % 1019,8 hPa 0,0 l/m² 0 min 0 W/m² 12,9 km/h (3 Bft) 97,37 %
28.03.2026 00:14 7,3 °C 6,7 °C 2,8 °C 76 % 1019,9 hPa 0,0 l/m² 0 min 0 W/m² 12,9 km/h (3 Bft) 95,83 %
28.03.2026 00:16 7,3 °C 6,1 °C 2,2 °C 76 % 1019,7 hPa 0,0 l/m² 0 min 0 W/m² 6,4 km/h (2 Bft) 93,62 %
28.03.2026 00:18 7,3 °C 6,1 °C 2,2 °C 76 % 1019,8 hPa 0,0 l/m² 0 min 0 W/m² 12,9 km/h (3 Bft) 95,74 %
28.03.2026 00:20 7,3 °C 6,1 °C 2,2 °C 76 % 1019,7 hPa 0,0 l/m² 0 min 0 W/m² 9,7 km/h (2 Bft) 95,74 %
28.03.2026 00:22 7,3 °C 6,1 °C 2,2 °C 77 % 1019,7 hPa 0,2 l/m² 0 min 0 W/m² 12,9 km/h (3 Bft) 98,00 %
28.03.2026 00:24 7,2 °C 6,1 °C 1,7 °C 77 % 1019,7 hPa 0,0 l/m² 0 min 0 W/m² 16,1 km/h (3 Bft) 97,37 %
28.03.2026 00:26 7,2 °C 6,1 °C 1,7 °C 77 % 1019,7 hPa 0,0 l/m² 0 min 0 W/m² 19,3 km/h (3 Bft) 97,87 %
28.03.2026 00:28 7,2 °C 6,1 °C 1,7 °C 78 % 1019,7 hPa 0,0 l/m² 0 min 0 W/m² 12,9 km/h (3 Bft) 97,87 %
28.03.2026 00:30 7,2 °C 6,1 °C 1,7 °C 78 % 1019,7 hPa 0,0 l/m² 0 min 0 W/m² 16,1 km/h (3 Bft) 97,87 %
28.03.2026 00:32 7,1 °C 6,1 °C 1,7 °C 79 % 1019,7 hPa 0,0 l/m² 0 min 0 W/m² 9,7 km/h (2 Bft) 97,87 %
28.03.2026 00:34 7,1 °C 6,1 °C 1,7 °C 79 % 1019,7 hPa 0,0 l/m² 0 min 0 W/m² 16,1 km/h (3 Bft) 97,87 %
28.03.2026 00:36 7,1 °C 6,1 °C 1,7 °C 79 % 1019,7 hPa 0,0 l/m² 0 min 0 W/m² 6,4 km/h (2 Bft) 97,87 %
28.03.2026 00:38 7,1 °C 6,1 °C 1,1 °C 79 % 1019,7 hPa 0,0 l/m² 0 min 0 W/m² 6,4 km/h (2 Bft) 95,74 %
28.03.2026 00:40 7,0 °C 6,1 °C 1,1 °C 80 % 1019,6 hPa 0,0 l/m² 0 min 0 W/m² 12,9 km/h (3 Bft) 100,00 %
28.03.2026 00:42 7,0 °C 6,1 °C 1,1 °C 80 % 1019,6 hPa 0,0 l/m² 0 min 0 W/m² 6,4 km/h (2 Bft) 100,00 %
28.03.2026 00:44 6,9 °C 6,1 °C 1,1 °C 80 % 1019,5 hPa 0,0 l/m² 0 min 0 W/m² 9,7 km/h (2 Bft) 100,00 %
28.03.2026 00:46 6,9 °C 5,6 °C 1,1 °C 80 % 1019,5 hPa 0,0 l/m² 0 min 0 W/m² 9,7 km/h (2 Bft) 100,00 %
28.03.2026 00:48 6,9 °C 6,1 °C 1,1 °C 80 % 1019,4 hPa 0,0 l/m² 0 min 0 W/m² 9,7 km/h (2 Bft) 97,22 %
28.03.2026 00:50 6,9 °C 6,1 °C 1,1 °C 80 % 1019,4 hPa 0,2 l/m² 0 min 0 W/m² 16,1 km/h (3 Bft) 100,00 %
28.03.2026 00:52 6,8 °C 5,6 °C 1,1 °C 81 % 1019,4 hPa 0,0 l/m² 0 min 0 W/m² 12,9 km/h (3 Bft) 100,00 %
28.03.2026 00:54 6,8 °C 6,1 °C 1,1 °C 81 % 1019,3 hPa 0,0 l/m² 0 min 0 W/m² 12,9 km/h (3 Bft) 89,36 %
28.03.2026 00:56 6,8 °C 5,6 °C 1,1 °C 81 % 1019,4 hPa 0,0 l/m² 0 min 0 W/m² 16,1 km/h (3 Bft) 98,00 %
28.03.2026 00:58 6,7 °C 5,6 °C 1,1 °C 81 % 1019,4 hPa 0,0 l/m² 0 min 0 W/m² 16,1 km/h (3 Bft) 97,37 %
28.03.2026 01:00 6,7 °C 5,6 °C 1,1 °C 81 % 1019,3 hPa 0,0 l/m² 0 min 0 W/m² 12,9 km/h (3 Bft) 95,74 %
28.03.2026 01:02 6,7 °C 5,6 °C 1,1 °C 81 % 1019,3 hPa 0,0 l/m² 0 min 0 W/m² 12,9 km/h (3 Bft) 97,87 %
28.03.2026 01:04 6,6 °C 5,6 °C 1,1 °C 81 % 1019,3 hPa 0,0 l/m² 0 min 0 W/m² 16,1 km/h (3 Bft) 98,00 %
28.03.2026 01:06 6,6 °C 5,6 °C 1,1 °C 82 % 1019,3 hPa 0,0 l/m² 0 min 0 W/m² 16,1 km/h (3 Bft) 95,74 %
28.03.2026 01:08 6,6 °C 5,6 °C 1,1 °C 82 % 1019,3 hPa 0,0 l/m² 0 min 0 W/m² 19,3 km/h (3 Bft) 97,87 %
28.03.2026 01:10 6,6 °C 5,6 °C 1,1 °C 82 % 1019,3 hPa 0,0 l/m² 0 min 0 W/m² 12,9 km/h (3 Bft) 96,00 %
28.03.2026 01:12 6,6 °C 5,6 °C 1,1 °C 82 % 1019,3 hPa 0,0 l/m² 0 min 0 W/m² 9,7 km/h (2 Bft) 95,74 %
28.03.2026 01:14 6,6 °C 6,1 °C 1,1 °C 82 % 1019,3 hPa 0,0 l/m² 0 min 0 W/m² 16,1 km/h (3 Bft) 97,87 %
28.03.2026 01:16 6,6 °C 5,6 °C 1,1 °C 82 % 1019,2 hPa 0,0 l/m² 0 min 0 W/m² 19,3 km/h (3 Bft) 95,74 %
28.03.2026 01:18 6,5 °C 5,6 °C 1,1 °C 82 % 1019,3 hPa 0,0 l/m² 0 min 0 W/m² 16,1 km/h (3 Bft) 97,87 %
28.03.2026 01:20 6,5 °C 5,6 °C 1,1 °C 82 % 1019,2 hPa 0,0 l/m² 0 min 0 W/m² 12,9 km/h (3 Bft) 97,87 %
28.03.2026 01:22 6,5 °C 5,6 °C 1,1 °C 82 % 1019,2 hPa 0,0 l/m² 0 min 0 W/m² 9,7 km/h (2 Bft) 97,87 %
28.03.2026 01:24 6,5 °C 5,6 °C 1,1 °C 82 % 1019,2 hPa 0,0 l/m² 0 min 0 W/m² 12,9 km/h (3 Bft) 95,74 %
28.03.2026 01:26 6,5 °C 5,6 °C 1,1 °C 82 % 1019,1 hPa 0,0 l/m² 0 min 0 W/m² 19,3 km/h (3 Bft) 95,74 %
28.03.2026 01:28 6,5 °C 5,6 °C 1,1 °C 83 % 1019,1 hPa 0,0 l/m² 0 min 0 W/m² 12,9 km/h (3 Bft) 97,87 %
28.03.2026 01:30 6,5 °C 5,6 °C 1,1 °C 83 % 1019,1 hPa 0,0 l/m² 0 min 0 W/m² 9,7 km/h (2 Bft) 50,00 %
28.03.2026 01:32 6,5 °C 5,6 °C 1,1 °C 83 % 1019,0 hPa 0,0 l/m² 0 min 0 W/m² 12,9 km/h (3 Bft) 93,33 %
28.03.2026 01:34 6,4 °C 5,6 °C 1,1 °C 83 % 1019,0 hPa 0,0 l/m² 0 min 0 W/m² 12,9 km/h (3 Bft) 95,74 %
28.03.2026 01:36 6,4 °C 5,6 °C 1,1 °C 83 % 1019,0 hPa 0,2 l/m² 0 min 0 W/m² 6,4 km/h (2 Bft) 93,62 %
28.03.2026 01:38 6,4 °C 5,6 °C 1,1 °C 83 % 1018,9 hPa 0,0 l/m² 0 min 0 W/m² 9,7 km/h (2 Bft) 93,62 %
28.03.2026 01:40 6,4 °C 5,6 °C 1,1 °C 83 % 1019,0 hPa 0,0 l/m² 0 min 0 W/m² 16,1 km/h (3 Bft) 95,74 %
28.03.2026 01:42 6,4 °C 5,6 °C 1,1 °C 83 % 1018,9 hPa 0,0 l/m² 0 min 0 W/m² 16,1 km/h (3 Bft) 95,74 %
28.03.2026 01:44 6,4 °C 5,6 °C 1,1 °C 84 % 1018,9 hPa 0,0 l/m² 0 min 0 W/m² 9,7 km/h (2 Bft) 92,00 %
28.03.2026 01:46 6,3 °C 5,6 °C 1,1 °C 84 % 1018,8 hPa 0,0 l/m² 0 min 0 W/m² 12,9 km/h (3 Bft) 95,74 %
28.03.2026 01:48 6,3 °C 5,6 °C 1,1 °C 84 % 1018,8 hPa 0,0 l/m² 0 min 0 W/m² 6,4 km/h (2 Bft) 95,74 %
28.03.2026 01:50 6,3 °C 5,6 °C 1,1 °C 84 % 1018,8 hPa 0,0 l/m² 0 min 0 W/m² 12,9 km/h (3 Bft) 94,74 %
28.03.2026 01:52 6,3 °C 5,6 °C 1,1 °C 84 % 1018,7 hPa 0,0 l/m² 0 min 0 W/m² 12,9 km/h (3 Bft) 93,62 %
28.03.2026 01:54 6,3 °C 5,6 °C 1,1 °C 84 % 1018,7 hPa 0,0 l/m² 0 min 0 W/m² 12,9 km/h (3 Bft) 93,62 %
28.03.2026 01:56 6,3 °C 5,6 °C 1,1 °C 84 % 1018,7 hPa 0,0 l/m² 0 min 0 W/m² 16,1 km/h (3 Bft) 91,49 %
28.03.2026 01:58 6,3 °C 5,6 °C 1,1 °C 84 % 1018,7 hPa 0,0 l/m² 0 min 0 W/m² 9,7 km/h (2 Bft) 93,62 %
28.03.2026 02:00 6,3 °C 5,6 °C 1,1 °C 84 % 1018,7 hPa 0,0 l/m² 0 min 0 W/m² 12,9 km/h (3 Bft) 95,74 %
28.03.2026 02:02 6,2 °C 5,6 °C 1,1 °C 85 % 1018,7 hPa 0,0 l/m² 0 min 0 W/m² 16,1 km/h (3 Bft) 95,74 %
28.03.2026 02:04 6,2 °C 5,6 °C 1,1 °C 85 % 1018,7 hPa 0,0 l/m² 0 min 0 W/m² 12,9 km/h (3 Bft) 94,00 %
28.03.2026 02:06 6,2 °C 5,6 °C 1,1 °C 85 % 1018,6 hPa 0,0 l/m² 0 min 0 W/m² 12,9 km/h (3 Bft) 97,78 %
28.03.2026 02:08 6,2 °C 5,6 °C 1,1 °C 85 % 1018,7 hPa 0,0 l/m² 0 min 0 W/m² 6,4 km/h (2 Bft) 97,78 %
28.03.2026 02:10 6,2 °C 5,6 °C 1,1 °C 85 % 1018,7 hPa 0,0 l/m² 0 min 0 W/m² 6,4 km/h (2 Bft) 97,83 %
28.03.2026 02:12 6,2 °C 5,6 °C 1,1 °C 85 % 1018,7 hPa 0,0 l/m² 0 min 0 W/m² 6,4 km/h (2 Bft) 100,00 %
28.03.2026 02:14 6,2 °C 5,6 °C 1,1 °C 86 % 1018,7 hPa 0,2 l/m² 0 min 0 W/m² 6,4 km/h (2 Bft) 95,83 %
28.03.2026 02:16 6,2 °C 5,0 °C 1,1 °C 86 % 1018,7 hPa 0,0 l/m² 0 min 0 W/m² 9,7 km/h (2 Bft) 95,74 %
28.03.2026 02:18 6,2 °C 5,0 °C 1,1 °C 86 % 1018,7 hPa 0,0 l/m² 0 min 0 W/m² 6,4 km/h (2 Bft) 97,87 %
28.03.2026 02:20 6,2 °C 5,0 °C 1,1 °C 86 % 1018,6 hPa 0,0 l/m² 0 min 0 W/m² 6,4 km/h (2 Bft) 96,00 %
28.03.2026 02:22 6,2 °C 5,0 °C 1,1 °C 86 % 1018,6 hPa 0,0 l/m² 0 min 0 W/m² 9,7 km/h (2 Bft) 100,00 %
28.03.2026 02:24 6,1 °C 5,6 °C 1,1 °C 86 % 1018,5 hPa 0,0 l/m² 0 min 0 W/m² 12,9 km/h (3 Bft) 100,00 %
28.03.2026 02:26 6,1 °C 5,6 °C 1,1 °C 86 % 1018,5 hPa 0,0 l/m² 0 min 0 W/m² 12,9 km/h (3 Bft) 100,00 %
28.03.2026 02:28 6,1 °C 5,6 °C 1,1 °C 87 % 1018,5 hPa 0,0 l/m² 0 min 0 W/m² 12,9 km/h (3 Bft) 97,87 %
28.03.2026 02:30 6,1 °C 5,6 °C 1,1 °C 87 % 1018,5 hPa 0,0 l/m² 0 min 0 W/m² 6,4 km/h (2 Bft) 97,87 %
28.03.2026 02:32 6,1 °C 5,6 °C 1,1 °C 87 % 1018,5 hPa 0,0 l/m² 0 min 0 W/m² 9,7 km/h (2 Bft) 100,00 %
28.03.2026 02:34 6,1 °C 5,6 °C 1,1 °C 87 % 1018,4 hPa 0,0 l/m² 0 min 0 W/m² 6,4 km/h (2 Bft) 100,00 %
28.03.2026 02:36 6,1 °C 5,6 °C 1,1 °C 87 % 1018,4 hPa 0,0 l/m² 0 min 0 W/m² 12,9 km/h (3 Bft) 89,36 %
28.03.2026 02:38 6,1 °C 5,6 °C 1,1 °C 87 % 1018,3 hPa 0,0 l/m² 0 min 0 W/m² 12,9 km/h (3 Bft) 65,91 %
28.03.2026 02:40 6,1 °C 5,6 °C 1,1 °C 87 % 1018,5 hPa 0,0 l/m² 0 min 0 W/m² 22,5 km/h (4 Bft) 100,00 %
28.03.2026 02:42 6,1 °C 5,0 °C 1,1 °C 87 % 1018,4 hPa 0,0 l/m² 0 min 0 W/m² 16,1 km/h (3 Bft) 100,00 %
28.03.2026 02:44 6,1 °C 5,0 °C 1,1 °C 87 % 1018,3 hPa 0,0 l/m² 0 min 0 W/m² 12,9 km/h (3 Bft) 100,00 %
28.03.2026 02:46 6,1 °C 5,0 °C 1,1 °C 87 % 1018,3 hPa 0,0 l/m² 0 min 0 W/m² 12,9 km/h (3 Bft) 100,00 %
28.03.2026 02:48 6,1 °C 5,0 °C 1,1 °C 87 % 1018,3 hPa 0,0 l/m² 0 min 0 W/m² 12,9 km/h (3 Bft) 98,00 %
28.03.2026 02:50 6,1 °C 5,0 °C 1,1 °C 87 % 1018,3 hPa 0,0 l/m² 0 min 0 W/m² 19,3 km/h (3 Bft) 100,00 %
28.03.2026 02:52 6,1 °C 5,0 °C 0,6 °C 87 % 1018,3 hPa 0,0 l/m² 0 min 0 W/m² 16,1 km/h (3 Bft) 100,00 %
28.03.2026 02:54 6,0 °C 5,0 °C 1,1 °C 88 % 1018,3 hPa 0,2 l/m² 0 min 0 W/m² 16,1 km/h (3 Bft) 100,00 %
28.03.2026 02:56 6,0 °C 5,0 °C 1,1 °C 88 % 1018,3 hPa 0,0 l/m² 0 min 0 W/m² 12,9 km/h (3 Bft) 100,00 %
28.03.2026 02:58 6,1 °C 5,0 °C 1,1 °C 88 % 1018,2 hPa 0,0 l/m² 0 min 0 W/m² 12,9 km/h (3 Bft) 100,00 %
28.03.2026 03:00 6,0 °C 5,0 °C 1,1 °C 88 % 1018,2 hPa 0,2 l/m² 0 min 0 W/m² 12,9 km/h (3 Bft) 98,00 %
28.03.2026 03:02 6,0 °C 5,0 °C 1,1 °C 88 % 1018,1 hPa 0,0 l/m² 0 min 0 W/m² 12,9 km/h (3 Bft) 100,00 %
28.03.2026 03:04 6,0 °C 5,0 °C 1,1 °C 88 % 1018,1 hPa 0,0 l/m² 0 min 0 W/m² 12,9 km/h (3 Bft) 100,00 %
28.03.2026 03:06 6,0 °C 5,0 °C 1,1 °C 88 % 1018,1 hPa 0,0 l/m² 0 min 0 W/m² 9,7 km/h (2 Bft) 100,00 %
28.03.2026 03:08 5,9 °C 5,0 °C 1,1 °C 89 % 1018,1 hPa 0,0 l/m² 0 min 0 W/m² 9,7 km/h (2 Bft) 100,00 %
28.03.2026 03:10 5,9 °C 5,0 °C 1,1 °C 89 % 1018,0 hPa 0,0 l/m² 0 min 0 W/m² 9,7 km/h (2 Bft) 100,00 %
28.03.2026 03:12 5,9 °C 5,0 °C 1,1 °C 89 % 1018,0 hPa 0,2 l/m² 0 min 0 W/m² 12,9 km/h (3 Bft) 97,87 %
28.03.2026 03:14 5,9 °C 5,0 °C 1,1 °C 89 % 1018,0 hPa 0,0 l/m² 0 min 0 W/m² 12,9 km/h (3 Bft) 100,00 %
28.03.2026 03:16 5,9 °C 5,0 °C 1,1 °C 89 % 1017,9 hPa 0,2 l/m² 0 min 0 W/m² 16,1 km/h (3 Bft) 97,87 %
28.03.2026 03:18 5,9 °C 5,0 °C 1,1 °C 89 % 1017,9 hPa 0,0 l/m² 0 min 0 W/m² 6,4 km/h (2 Bft) 100,00 %
28.03.2026 03:20 5,9 °C 5,0 °C 1,1 °C 89 % 1017,8 hPa 0,0 l/m² 0 min 0 W/m² 6,4 km/h (2 Bft) 100,00 %
28.03.2026 03:22 5,9 °C 5,0 °C 1,1 °C 89 % 1017,9 hPa 0,0 l/m² 0 min 0 W/m² 12,9 km/h (3 Bft) 100,00 %
28.03.2026 03:24 5,9 °C 5,0 °C 1,1 °C 90 % 1017,9 hPa 0,2 l/m² 0 min 0 W/m² 12,9 km/h (3 Bft) 97,87 %
28.03.2026 03:26 5,9 °C 5,0 °C 1,1 °C 90 % 1017,8 hPa 0,0 l/m² 0 min 0 W/m² 12,9 km/h (3 Bft) 100,00 %
28.03.2026 03:28 5,8 °C 5,0 °C 1,1 °C 90 % 1017,8 hPa 0,0 l/m² 0 min 0 W/m² 6,4 km/h (2 Bft) 100,00 %
28.03.2026 03:30 5,8 °C 5,0 °C 1,1 °C 90 % 1017,7 hPa 0,0 l/m² 0 min 0 W/m² 9,7 km/h (2 Bft) 100,00 %
28.03.2026 03:32 5,8 °C 5,0 °C 1,1 °C 90 % 1017,7 hPa 0,2 l/m² 0 min 0 W/m² 12,9 km/h (3 Bft) 100,00 %
28.03.2026 03:34 5,8 °C 5,0 °C 1,1 °C 90 % 1017,7 hPa 0,0 l/m² 0 min 0 W/m² 9,7 km/h (2 Bft) 96,00 %
28.03.2026 03:36 5,8 °C 5,0 °C 1,1 °C 91 % 1017,6 hPa 0,0 l/m² 0 min 0 W/m² 6,4 km/h (2 Bft) 97,87 %
28.03.2026 03:38 5,8 °C 5,0 °C 1,1 °C 90 % 1017,7 hPa 0,0 l/m² 0 min 0 W/m² 12,9 km/h (3 Bft) 96,00 %
28.03.2026 03:40 5,8 °C 4,4 °C 1,1 °C 91 % 1017,6 hPa 0,0 l/m² 0 min 0 W/m² 12,9 km/h (3 Bft) 97,37 %
28.03.2026 03:42 5,8 °C 4,4 °C 1,1 °C 91 % 1017,5 hPa 0,2 l/m² 0 min 0 W/m² 6,4 km/h (2 Bft) 90,00 %
28.03.2026 03:44 5,8 °C 4,4 °C 1,1 °C 91 % 1017,5 hPa 0,2 l/m² 0 min 0 W/m² 6,4 km/h (2 Bft) 96,04 %
28.03.2026 03:46 5,7 °C 4,4 °C 1,1 °C 91 % 1017,5 hPa 0,0 l/m² 0 min 0 W/m² 6,4 km/h (2 Bft) 91,84 %
28.03.2026 03:48 5,7 °C 4,4 °C 1,1 °C 91 % 1017,5 hPa 0,0 l/m² 0 min 0 W/m² 6,4 km/h (2 Bft) 95,74 %
28.03.2026 03:50 5,7 °C 4,4 °C 1,1 °C 91 % 1017,4 hPa 0,0 l/m² 0 min 0 W/m² 9,7 km/h (2 Bft) 93,62 %
28.03.2026 03:52 5,7 °C 4,4 °C 1,1 °C 91 % 1017,5 hPa 0,2 l/m² 0 min 0 W/m² 16,1 km/h (3 Bft) 95,74 %
28.03.2026 03:54 5,7 °C 4,4 °C 1,1 °C 92 % 1017,4 hPa 0,0 l/m² 0 min 0 W/m² 9,7 km/h (2 Bft) 95,74 %
28.03.2026 03:56 5,7 °C 4,4 °C 1,1 °C 91 % 1017,4 hPa 0,2 l/m² 0 min 0 W/m² 9,7 km/h (2 Bft) 95,74 %
28.03.2026 03:58 5,7 °C 4,4 °C 1,1 °C 92 % 1017,4 hPa 0,0 l/m² 0 min 0 W/m² 9,7 km/h (2 Bft) 95,74 %
28.03.2026 04:00 5,7 °C 4,4 °C 1,1 °C 92 % 1017,4 hPa 0,0 l/m² 0 min 0 W/m² 12,9 km/h (3 Bft) 95,24 %
28.03.2026 04:02 5,6 °C 4,4 °C 1,1 °C 92 % 1017,4 hPa 0,0 l/m² 0 min 0 W/m² 6,4 km/h (2 Bft) 95,74 %
28.03.2026 04:04 5,6 °C 4,4 °C 1,1 °C 92 % 1017,4 hPa 0,0 l/m² 0 min 0 W/m² 6,4 km/h (2 Bft) 95,24 %
28.03.2026 04:06 5,6 °C 4,4 °C 1,1 °C 92 % 1017,4 hPa 0,2 l/m² 0 min 0 W/m² 9,7 km/h (2 Bft) 96,77 %
28.03.2026 04:08 5,6 °C 4,4 °C 1,1 °C 92 % 1017,4 hPa 0,0 l/m² 0 min 0 W/m² 12,9 km/h (3 Bft) 97,14 %
28.03.2026 04:10 5,6 °C 4,4 °C 1,1 °C 92 % 1017,4 hPa 0,2 l/m² 0 min 0 W/m² 6,4 km/h (2 Bft) 97,87 %
28.03.2026 04:12 5,6 °C 4,4 °C 1,1 °C 92 % 1017,4 hPa 0,0 l/m² 0 min 0 W/m² 6,4 km/h (2 Bft) 97,87 %
28.03.2026 04:14 5,6 °C 4,4 °C 1,1 °C 93 % 1017,4 hPa 0,0 l/m² 0 min 0 W/m² 9,7 km/h (2 Bft) 95,74 %
28.03.2026 04:16 5,6 °C 4,4 °C 1,1 °C 93 % 1017,4 hPa 0,2 l/m² 0 min 0 W/m² 9,7 km/h (2 Bft) 100,00 %
28.03.2026 04:18 5,6 °C 4,4 °C 1,1 °C 93 % 1017,4 hPa 0,2 l/m² 0 min 0 W/m² 6,4 km/h (2 Bft) 100,00 %
28.03.2026 04:20 5,6 °C 4,4 °C 1,1 °C 93 % 1017,4 hPa 0,0 l/m² 0 min 0 W/m² 12,9 km/h (3 Bft) 97,87 %
28.03.2026 04:22 5,6 °C 4,4 °C 1,1 °C 93 % 1017,4 hPa 0,0 l/m² 0 min 0 W/m² 6,4 km/h (2 Bft) 97,87 %
28.03.2026 04:24 5,6 °C 4,4 °C 1,1 °C 93 % 1017,4 hPa 0,2 l/m² 0 min 0 W/m² 3,2 km/h (1 Bft) 97,87 %
28.03.2026 04:26 5,6 °C 4,4 °C 1,1 °C 93 % 1017,4 hPa 0,2 l/m² 0 min 0 W/m² 6,4 km/h (2 Bft) 97,87 %
28.03.2026 04:28 5,6 °C 4,4 °C 1,1 °C 93 % 1017,4 hPa 0,0 l/m² 0 min 0 W/m² 3,2 km/h (1 Bft) 97,37 %
28.03.2026 04:30 5,6 °C 4,4 °C 1,1 °C 93 % 1017,4 hPa 0,0 l/m² 0 min 0 W/m² 6,4 km/h (2 Bft) 96,00 %
28.03.2026 04:32 5,5 °C 4,4 °C 1,1 °C 93 % 1017,4 hPa 0,0 l/m² 0 min 0 W/m² 6,4 km/h (2 Bft) 97,87 %
28.03.2026 04:34 5,5 °C 4,4 °C 1,1 °C 93 % 1017,4 hPa 0,2 l/m² 0 min 0 W/m² 6,4 km/h (2 Bft) 98,00 %
28.03.2026 04:36 5,5 °C 4,4 °C 1,1 °C 93 % 1017,4 hPa 0,0 l/m² 0 min 0 W/m² 6,4 km/h (2 Bft) 97,87 %
28.03.2026 04:38 5,5 °C 4,4 °C 1,1 °C 93 % 1017,4 hPa 0,2 l/m² 0 min 0 W/m² 6,4 km/h (2 Bft) 95,92 %
28.03.2026 04:40 5,5 °C 4,4 °C 1,1 °C 93 % 1017,4 hPa 0,0 l/m² 0 min 0 W/m² 9,7 km/h (2 Bft) 95,74 %
28.03.2026 04:42 5,5 °C 4,4 °C 1,1 °C 93 % 1017,4 hPa 0,0 l/m² 0 min 0 W/m² 6,4 km/h (2 Bft) 98,00 %
28.03.2026 04:44 5,5 °C 4,4 °C 1,1 °C 93 % 1017,4 hPa 0,0 l/m² 0 min 0 W/m² 9,7 km/h (2 Bft) 97,87 %
28.03.2026 04:46 5,5 °C 4,4 °C 1,1 °C 93 % 1017,4 hPa 0,0 l/m² 0 min 0 W/m² 9,7 km/h (2 Bft) 94,74 %
28.03.2026 04:48 5,4 °C 4,4 °C 1,1 °C 93 % 1017,3 hPa 0,0 l/m² 0 min 0 W/m² 6,4 km/h (2 Bft) 96,00 %
28.03.2026 04:50 5,4 °C 4,4 °C 1,1 °C 93 % 1017,3 hPa 0,0 l/m² 0 min 0 W/m² 6,4 km/h (2 Bft) 95,74 %
28.03.2026 04:52 5,4 °C 4,4 °C 1,1 °C 94 % 1017,3 hPa 0,0 l/m² 0 min 0 W/m² 12,9 km/h (3 Bft) 98,00 %
28.03.2026 04:54 5,4 °C 4,4 °C 1,1 °C 94 % 1017,3 hPa 0,2 l/m² 0 min 0 W/m² 6,4 km/h (2 Bft) 97,87 %
28.03.2026 04:56 5,4 °C 4,4 °C 1,1 °C 93 % 1017,3 hPa 0,0 l/m² 0 min 0 W/m² 6,4 km/h (2 Bft) 95,74 %
28.03.2026 04:58 5,4 °C 4,4 °C 1,1 °C 94 % 1017,3 hPa 0,0 l/m² 0 min 0 W/m² 9,7 km/h (2 Bft) 97,62 %
28.03.2026 05:00 5,4 °C 4,4 °C 1,1 °C 94 % 1017,3 hPa 0,0 l/m² 0 min 0 W/m² 6,4 km/h (2 Bft) 97,87 %
28.03.2026 05:02 5,4 °C 4,4 °C 1,1 °C 94 % 1017,3 hPa 0,0 l/m² 0 min 0 W/m² 6,4 km/h (2 Bft) 95,74 %
28.03.2026 05:04 5,4 °C 4,4 °C 1,1 °C 94 % 1017,3 hPa 0,2 l/m² 0 min 0 W/m² 9,7 km/h (2 Bft) 96,00 %
28.03.2026 05:06 5,4 °C 4,4 °C 1,1 °C 94 % 1017,2 hPa 0,0 l/m² 0 min 0 W/m² 6,4 km/h (2 Bft) 96,00 %
28.03.2026 05:08 5,4 °C 4,4 °C 1,1 °C 94 % 1017,3 hPa 0,0 l/m² 0 min 0 W/m² 6,4 km/h (2 Bft) 97,37 %
28.03.2026 05:10 5,4 °C 4,4 °C 1,1 °C 94 % 1017,3 hPa 0,0 l/m² 0 min 0 W/m² 6,4 km/h (2 Bft) 98,15 %
28.03.2026 05:12 5,4 °C 4,4 °C 1,1 °C 94 % 1017,3 hPa 0,0 l/m² 0 min 0 W/m² 6,4 km/h (2 Bft) 97,87 %
28.03.2026 05:14 5,4 °C 4,4 °C 1,1 °C 94 % 1017,2 hPa 0,0 l/m² 0 min 0 W/m² 3,2 km/h (1 Bft) 94,74 %
28.03.2026 05:16 5,4 °C 4,4 °C 1,1 °C 94 % 1017,2 hPa 0,0 l/m² 0 min 0 W/m² 3,2 km/h (1 Bft) 95,74 %
28.03.2026 05:18 5,4 °C 4,4 °C 1,1 °C 94 % 1017,2 hPa 0,0 l/m² 0 min 0 W/m² 6,4 km/h (2 Bft) 97,87 %
28.03.2026 05:20 5,4 °C 4,4 °C 1,1 °C 94 % 1017,2 hPa 0,0 l/m² 0 min 0 W/m² 9,7 km/h (2 Bft) 97,87 %
28.03.2026 05:22 5,4 °C 4,4 °C 1,1 °C 94 % 1017,2 hPa 0,0 l/m² 0 min 0 W/m² 6,4 km/h (2 Bft) 97,37 %
28.03.2026 05:24 5,4 °C 4,4 °C 1,1 °C 94 % 1017,1 hPa 0,2 l/m² 0 min 0 W/m² 9,7 km/h (2 Bft) 98,46 %
28.03.2026 05:26 5,4 °C 4,4 °C 1,1 °C 94 % 1017,2 hPa 0,0 l/m² 0 min 0 W/m² 9,7 km/h (2 Bft) 97,87 %
28.03.2026 05:28 5,4 °C 4,4 °C 1,1 °C 94 % 1017,2 hPa 0,0 l/m² 0 min 0 W/m² 9,7 km/h (2 Bft) 97,37 %
28.03.2026 05:30 5,4 °C 4,4 °C 1,1 °C 95 % 1017,2 hPa 0,0 l/m² 0 min 0 W/m² 9,7 km/h (2 Bft) 98,00 %
28.03.2026 05:32 5,4 °C 4,4 °C 1,1 °C 95 % 1017,2 hPa 0,2 l/m² 0 min 0 W/m² 6,4 km/h (2 Bft) 95,74 %
28.03.2026 05:34 5,4 °C 4,4 °C 1,1 °C 95 % 1017,1 hPa 0,0 l/m² 0 min 0 W/m² 9,7 km/h (2 Bft) 97,87 %
28.03.2026 05:36 5,4 °C 4,4 °C 1,1 °C 95 % 1017,1 hPa 0,0 l/m² 0 min 0 W/m² 12,9 km/h (3 Bft) 98,11 %
28.03.2026 05:38 5,4 °C 4,4 °C 1,1 °C 95 % 1017,2 hPa 0,0 l/m² 0 min 0 W/m² 6,4 km/h (2 Bft) 97,87 %
28.03.2026 05:40 5,4 °C 4,4 °C 1,1 °C 95 % 1017,2 hPa 0,0 l/m² 0 min 0 W/m² 6,4 km/h (2 Bft) 97,37 %
28.03.2026 05:42 5,4 °C 4,4 °C 1,1 °C 95 % 1017,2 hPa 0,0 l/m² 0 min 0 W/m² 9,7 km/h (2 Bft) 95,74 %
28.03.2026 05:44 5,4 °C 4,4 °C 1,1 °C 95 % 1017,1 hPa 0,0 l/m² 0 min 0 W/m² 12,9 km/h (3 Bft) 95,74 %
28.03.2026 05:46 5,4 °C 4,4 °C 1,1 °C 95 % 1017,1 hPa 0,0 l/m² 0 min 0 W/m² 12,9 km/h (3 Bft) 95,74 %
28.03.2026 05:48 5,4 °C 4,4 °C 1,1 °C 95 % 1017,1 hPa 0,2 l/m² 0 min 0 W/m² 9,7 km/h (2 Bft) 95,74 %
28.03.2026 05:50 5,4 °C 4,4 °C 1,1 °C 95 % 1017,1 hPa 0,0 l/m² 0 min 0 W/m² 6,4 km/h (2 Bft) 98,11 %
28.03.2026 05:52 5,4 °C 4,4 °C 1,1 °C 95 % 1017,1 hPa 0,0 l/m² 0 min 0 W/m² 9,7 km/h (2 Bft) 93,62 %
28.03.2026 05:54 5,4 °C 4,4 °C 1,1 °C 95 % 1017,1 hPa 0,2 l/m² 0 min 0 W/m² 9,7 km/h (2 Bft) 52,27 %
28.03.2026 05:56 5,4 °C 4,4 °C 1,1 °C 95 % 1017,1 hPa 0,0 l/m² 0 min 0 W/m² 6,4 km/h (2 Bft) 100,00 %
28.03.2026 05:58 5,4 °C 4,4 °C 1,1 °C 95 % 1017,1 hPa 0,0 l/m² 0 min 0 W/m² 9,7 km/h (2 Bft) 97,83 %
28.03.2026 06:00 5,4 °C 4,4 °C 1,1 °C 95 % 1017,1 hPa 0,0 l/m² 0 min 0 W/m² 6,4 km/h (2 Bft) 97,62 %
28.03.2026 06:02 5,4 °C 4,4 °C 1,1 °C 95 % 1017,1 hPa 0,0 l/m² 0 min 0 W/m² 12,9 km/h (3 Bft) 93,48 %
28.03.2026 06:04 5,4 °C 4,4 °C 1,1 °C 95 % 1017,1 hPa 0,2 l/m² 0 min 0 W/m² 6,4 km/h (2 Bft) 97,87 %
28.03.2026 06:06 5,4 °C 4,4 °C 1,1 °C 95 % 1017,0 hPa 0,0 l/m² 0 min 0 W/m² 6,4 km/h (2 Bft) 97,92 %
28.03.2026 06:08 5,4 °C 4,4 °C 1,1 °C 95 % 1017,0 hPa 0,0 l/m² 0 min 0 W/m² 3,2 km/h (1 Bft) 97,87 %
28.03.2026 06:10 5,4 °C 4,4 °C 1,1 °C 95 % 1017,1 hPa 0,2 l/m² 0 min 0 W/m² 9,7 km/h (2 Bft) 97,87 %
28.03.2026 06:12 5,4 °C 4,4 °C 1,1 °C 95 % 1017,1 hPa 0,0 l/m² 0 min 0 W/m² 6,4 km/h (2 Bft) 98,00 %
28.03.2026 06:14 5,4 °C 4,4 °C 1,1 °C 95 % 1017,1 hPa 0,0 l/m² 0 min 0 W/m² 6,4 km/h (2 Bft) 94,74 %
28.03.2026 06:16 5,4 °C 4,4 °C 1,1 °C 95 % 1017,0 hPa 0,0 l/m² 0 min 0 W/m² 6,4 km/h (2 Bft) 94,92 %
28.03.2026 06:18 5,4 °C 4,4 °C 1,1 °C 95 % 1017,1 hPa 0,0 l/m² 0 min 0 W/m² 6,4 km/h (2 Bft) 97,37 %
28.03.2026 06:20 5,4 °C 4,4 °C 1,1 °C 95 % 1017,1 hPa 0,0 l/m² 0 min 0 W/m² 12,9 km/h (3 Bft) 97,87 %
28.03.2026 06:22 5,4 °C 4,4 °C 1,1 °C 95 % 1017,1 hPa 0,2 l/m² 0 min 0 W/m² 12,9 km/h (3 Bft) 97,87 %
28.03.2026 06:24 5,4 °C 4,4 °C 1,1 °C 96 % 1017,1 hPa 0,0 l/m² 0 min 0 W/m² 6,4 km/h (2 Bft) 95,74 %
28.03.2026 06:26 5,4 °C 4,4 °C 1,1 °C 96 % 1017,1 hPa 0,0 l/m² 0 min 0 W/m² 6,4 km/h (2 Bft) 95,56 %
28.03.2026 06:28 5,4 °C 4,4 °C 1,1 °C 96 % 1017,1 hPa 0,0 l/m² 0 min 0 W/m² 9,7 km/h (2 Bft) 97,87 %
28.03.2026 06:30 5,4 °C 4,4 °C 1,1 °C 96 % 1017,1 hPa 0,0 l/m² 0 min 0 W/m² 12,9 km/h (3 Bft) 95,74 %
28.03.2026 06:32 5,4 °C 4,4 °C 1,1 °C 96 % 1017,1 hPa 0,2 l/m² 0 min 0 W/m² 12,9 km/h (3 Bft) 97,87 %
28.03.2026 06:34 5,4 °C 4,4 °C 1,1 °C 96 % 1017,1 hPa 0,0 l/m² 0 min 0 W/m² 6,4 km/h (2 Bft) 97,87 %
28.03.2026 06:36 5,4 °C 4,4 °C 1,1 °C 96 % 1017,2 hPa 0,0 l/m² 0 min 0 W/m² 6,4 km/h (2 Bft) 95,74 %
28.03.2026 06:38 5,4 °C 4,4 °C 1,1 °C 96 % 1017,1 hPa 0,0 l/m² 0 min 0 W/m² 9,7 km/h (2 Bft) 100,00 %
28.03.2026 06:40 5,4 °C 4,4 °C 1,1 °C 96 % 1017,2 hPa 0,0 l/m² 0 min 0 W/m² 12,9 km/h (3 Bft) 100,00 %
28.03.2026 06:42 5,4 °C 4,4 °C 1,1 °C 96 % 1017,2 hPa 0,0 l/m² 0 min 0 W/m² 6,4 km/h (2 Bft) 100,00 %
28.03.2026 06:44 5,4 °C 4,4 °C 1,1 °C 96 % 1017,3 hPa 0,0 l/m² 0 min 5 W/m² 6,4 km/h (2 Bft) 97,87 %
28.03.2026 06:46 5,4 °C 4,4 °C 1,1 °C 96 % 1017,3 hPa 0,2 l/m² 0 min 5 W/m² 6,4 km/h (2 Bft) 100,00 %
28.03.2026 06:48 5,4 °C 4,4 °C 1,1 °C 96 % 1017,3 hPa 0,0 l/m² 0 min 6 W/m² 12,9 km/h (3 Bft) 97,87 %
28.03.2026 06:50 5,4 °C 4,4 °C 1,1 °C 96 % 1017,3 hPa 0,0 l/m² 0 min 7 W/m² 12,9 km/h (3 Bft) 100,00 %
28.03.2026 06:52 5,4 °C 4,4 °C 1,1 °C 96 % 1017,3 hPa 0,2 l/m² 0 min 6 W/m² 9,7 km/h (2 Bft) 97,87 %
28.03.2026 06:54 5,4 °C 5,0 °C 1,1 °C 96 % 1017,3 hPa 0,0 l/m² 0 min 9 W/m² 3,2 km/h (1 Bft) 98,00 %
28.03.2026 06:56 5,4 °C 5,0 °C 1,1 °C 96 % 1017,3 hPa 0,0 l/m² 0 min 9 W/m² 6,4 km/h (2 Bft) 100,00 %
28.03.2026 06:58 5,5 °C 5,0 °C 1,1 °C 96 % 1017,4 hPa 0,0 l/m² 0 min 10 W/m² 16,1 km/h (3 Bft) 100,00 %
28.03.2026 07:00 5,5 °C 5,0 °C 1,1 °C 96 % 1017,3 hPa 0,2 l/m² 0 min 8 W/m² 6,4 km/h (2 Bft) 100,00 %
28.03.2026 07:02 5,5 °C 5,0 °C 1,1 °C 96 % 1017,4 hPa 0,0 l/m² 0 min 9 W/m² 16,1 km/h (3 Bft) 100,00 %
28.03.2026 07:04 5,5 °C 5,0 °C 1,1 °C 96 % 1017,3 hPa 0,0 l/m² 0 min 8 W/m² 6,4 km/h (2 Bft) 100,00 %
28.03.2026 07:06 5,5 °C 5,0 °C 1,1 °C 96 % 1017,4 hPa 0,2 l/m² 0 min 7 W/m² 19,3 km/h (3 Bft) 97,87 %
28.03.2026 07:08 5,5 °C 5,0 °C 1,1 °C 96 % 1017,4 hPa 0,0 l/m² 0 min 9 W/m² 12,9 km/h (3 Bft) 100,00 %
28.03.2026 07:10 5,6 °C 5,0 °C 1,1 °C 96 % 1017,4 hPa 0,0 l/m² 0 min 8 W/m² 6,4 km/h (2 Bft) 98,11 %
28.03.2026 07:12 5,6 °C 5,0 °C 1,1 °C 96 % 1017,4 hPa 0,0 l/m² 0 min 7 W/m² 3,2 km/h (1 Bft) 95,74 %
28.03.2026 07:14 5,6 °C 5,0 °C 1,1 °C 96 % 1017,4 hPa 0,0 l/m² 0 min 8 W/m² 3,2 km/h (1 Bft) 98,00 %
28.03.2026 07:16 5,6 °C 5,0 °C 1,1 °C 96 % 1017,4 hPa 0,2 l/m² 0 min 9 W/m² 6,4 km/h (2 Bft) 97,83 %
28.03.2026 07:18 5,6 °C 5,0 °C 1,1 °C 96 % 1017,5 hPa 0,0 l/m² 0 min 10 W/m² 6,4 km/h (2 Bft) 97,87 %
28.03.2026 07:20 5,6 °C 5,0 °C 1,1 °C 96 % 1017,4 hPa 0,0 l/m² 0 min 13 W/m² 6,4 km/h (2 Bft) 97,87 %
28.03.2026 07:22 5,6 °C 5,0 °C 1,1 °C 96 % 1017,4 hPa 0,0 l/m² 0 min 14 W/m² 6,4 km/h (2 Bft) 97,87 %
28.03.2026 07:24 5,6 °C 5,0 °C 1,1 °C 96 % 1017,5 hPa 0,2 l/m² 0 min 13 W/m² 6,4 km/h (2 Bft) 97,87 %
28.03.2026 07:26 5,6 °C 5,0 °C 1,1 °C 96 % 1017,4 hPa 0,0 l/m² 0 min 16 W/m² 6,4 km/h (2 Bft) 95,74 %
28.03.2026 07:28 5,6 °C 5,0 °C 1,1 °C 96 % 1017,4 hPa 0,0 l/m² 0 min 18 W/m² 3,2 km/h (1 Bft) 95,74 %
28.03.2026 07:30 5,6 °C 5,0 °C 1,1 °C 96 % 1017,4 hPa 0,0 l/m² 0 min 20 W/m² 3,2 km/h (1 Bft) 95,74 %
28.03.2026 07:32 5,6 °C 5,0 °C 1,1 °C 97 % 1017,4 hPa 0,0 l/m² 0 min 19 W/m² 6,4 km/h (2 Bft) 97,22 %
28.03.2026 07:34 5,6 °C 5,0 °C 1,1 °C 97 % 1017,4 hPa 0,2 l/m² 0 min 21 W/m² 6,4 km/h (2 Bft) 92,31 %
28.03.2026 07:36 5,7 °C 5,0 °C 1,1 °C 97 % 1017,5 hPa 0,0 l/m² 0 min 18 W/m² 6,4 km/h (2 Bft) 95,74 %
28.03.2026 07:38 5,7 °C 5,0 °C 1,1 °C 97 % 1017,5 hPa 0,0 l/m² 0 min 16 W/m² 3,2 km/h (1 Bft) 95,74 %
28.03.2026 07:40 5,7 °C 5,0 °C 1,7 °C 97 % 1017,5 hPa 0,2 l/m² 0 min 16 W/m² 6,4 km/h (2 Bft) 96,00 %
28.03.2026 07:42 5,7 °C 5,0 °C 1,7 °C 97 % 1017,6 hPa 0,0 l/m² 0 min 18 W/m² 6,4 km/h (2 Bft) 93,62 %
28.03.2026 07:44 5,7 °C 5,0 °C 1,7 °C 97 % 1017,6 hPa 0,0 l/m² 0 min 17 W/m² 6,4 km/h (2 Bft) 94,00 %
28.03.2026 07:46 5,7 °C 5,0 °C 1,7 °C 97 % 1017,6 hPa 0,0 l/m² 0 min 18 W/m² 3,2 km/h (1 Bft) 97,14 %
28.03.2026 07:48 5,7 °C 5,0 °C 1,7 °C 97 % 1017,6 hPa 0,2 l/m² 0 min 19 W/m² 6,4 km/h (2 Bft) 95,92 %
28.03.2026 07:50 5,7 °C 5,0 °C 1,7 °C 97 % 1017,6 hPa 0,0 l/m² 0 min 25 W/m² 6,4 km/h (2 Bft) 96,00 %
28.03.2026 07:52 5,7 °C 5,0 °C 1,7 °C 97 % 1017,6 hPa 0,0 l/m² 0 min 27 W/m² 6,4 km/h (2 Bft) 95,74 %
28.03.2026 07:54 5,7 °C 5,0 °C 1,7 °C 97 % 1017,7 hPa 0,0 l/m² 0 min 31 W/m² 6,4 km/h (2 Bft) 98,00 %
28.03.2026 07:56 5,7 °C 5,0 °C 1,7 °C 97 % 1017,7 hPa 0,0 l/m² 0 min 26 W/m² 6,4 km/h (2 Bft) 97,87 %
28.03.2026 07:58 5,8 °C 5,0 °C 1,7 °C 97 % 1017,7 hPa 0,2 l/m² 0 min 19 W/m² 6,4 km/h (2 Bft) 95,74 %
28.03.2026 08:00 5,8 °C 5,0 °C 1,7 °C 97 % 1017,7 hPa 0,0 l/m² 0 min 19 W/m² 6,4 km/h (2 Bft) 96,08 %
28.03.2026 08:02 5,8 °C 5,0 °C 1,7 °C 97 % 1017,8 hPa 0,0 l/m² 0 min 28 W/m² 9,7 km/h (2 Bft) 95,65 %
28.03.2026 08:04 5,8 °C 5,0 °C 1,7 °C 97 % 1017,8 hPa 0,2 l/m² 0 min 32 W/m² 6,4 km/h (2 Bft) 95,74 %
28.03.2026 08:06 5,8 °C 5,0 °C 1,7 °C 97 % 1017,7 hPa 0,0 l/m² 0 min 33 W/m² 6,4 km/h (2 Bft) 95,74 %
28.03.2026 08:08 5,8 °C 5,0 °C 1,7 °C 97 % 1017,7 hPa 0,2 l/m² 0 min 35 W/m² 6,4 km/h (2 Bft) 95,74 %
28.03.2026 08:10 5,8 °C 5,6 °C 1,7 °C 97 % 1017,7 hPa 0,0 l/m² 0 min 38 W/m² 3,2 km/h (1 Bft) 97,87 %
28.03.2026 08:12 5,8 °C 5,6 °C 1,7 °C 97 % 1017,8 hPa 0,0 l/m² 0 min 39 W/m² 3,2 km/h (1 Bft) 97,87 %
28.03.2026 08:14 5,8 °C 5,6 °C 1,7 °C 97 % 1017,8 hPa 0,2 l/m² 0 min 41 W/m² 3,2 km/h (1 Bft) 97,14 %
28.03.2026 08:16 5,9 °C 5,6 °C 1,7 °C 97 % 1017,7 hPa 0,0 l/m² 0 min 45 W/m² 3,2 km/h (1 Bft) 98,18 %
28.03.2026 08:18 5,9 °C 5,6 °C 1,7 °C 97 % 1017,8 hPa 0,0 l/m² 0 min 46 W/m² 3,2 km/h (1 Bft) 95,74 %
28.03.2026 08:20 5,9 °C 5,6 °C 1,7 °C 97 % 1017,8 hPa 0,0 l/m² 0 min 46 W/m² 3,2 km/h (1 Bft) 100,00 %
28.03.2026 08:22 5,9 °C 5,6 °C 1,7 °C 97 % 1017,8 hPa 0,2 l/m² 0 min 47 W/m² 3,2 km/h (1 Bft) 100,00 %
28.03.2026 08:24 5,9 °C 5,6 °C 1,7 °C 97 % 1017,8 hPa 0,0 l/m² 0 min 47 W/m² 6,4 km/h (2 Bft) 97,87 %
28.03.2026 08:26 5,9 °C 5,6 °C 1,7 °C 97 % 1017,8 hPa 0,0 l/m² 0 min 48 W/m² 3,2 km/h (1 Bft) 97,87 %
28.03.2026 08:28 5,9 °C 5,6 °C 1,7 °C 97 % 1017,8 hPa 0,0 l/m² 0 min 52 W/m² 3,2 km/h (1 Bft) 95,74 %
28.03.2026 08:30 6,0 °C 5,6 °C 1,7 °C 97 % 1017,8 hPa 0,2 l/m² 0 min 53 W/m² 6,4 km/h (2 Bft) 97,87 %
28.03.2026 08:32 6,0 °C 5,6 °C 1,7 °C 97 % 1017,9 hPa 0,0 l/m² 0 min 52 W/m² 3,2 km/h (1 Bft) 97,37 %
28.03.2026 08:34 6,0 °C 5,6 °C 1,7 °C 97 % 1017,9 hPa 0,0 l/m² 0 min 48 W/m² 3,2 km/h (1 Bft) 98,00 %
28.03.2026 08:36 6,1 °C 5,6 °C 1,7 °C 97 % 1017,9 hPa 0,0 l/m² 0 min 41 W/m² 12,9 km/h (3 Bft) 97,87 %
28.03.2026 08:38 6,1 °C 5,6 °C 1,7 °C 97 % 1017,9 hPa 0,2 l/m² 0 min 34 W/m² 12,9 km/h (3 Bft) 97,87 %
28.03.2026 08:40 6,1 °C 5,6 °C 1,7 °C 97 % 1017,9 hPa 0,0 l/m² 0 min 37 W/m² 6,4 km/h (2 Bft) 95,74 %
28.03.2026 08:42 6,1 °C 5,6 °C 1,7 °C 97 % 1017,9 hPa 0,0 l/m² 0 min 39 W/m² 6,4 km/h (2 Bft) 96,30 %
28.03.2026 08:44 6,1 °C 5,6 °C 2,2 °C 97 % 1017,9 hPa 0,0 l/m² 0 min 34 W/m² 6,4 km/h (2 Bft) 97,87 %
28.03.2026 08:46 6,1 °C 5,6 °C 1,7 °C 97 % 1017,9 hPa 0,2 l/m² 0 min 29 W/m² 6,4 km/h (2 Bft) 97,87 %
28.03.2026 08:48 6,1 °C 5,6 °C 1,7 °C 97 % 1017,9 hPa 0,0 l/m² 0 min 27 W/m² 3,2 km/h (1 Bft) 97,87 %
28.03.2026 08:50 6,1 °C 5,6 °C 1,7 °C 97 % 1018,0 hPa 0,0 l/m² 0 min 27 W/m² 6,4 km/h (2 Bft) 97,87 %
28.03.2026 08:52 6,1 °C 5,6 °C 1,7 °C 97 % 1018,0 hPa 0,2 l/m² 0 min 29 W/m² 6,4 km/h (2 Bft) 97,14 %
28.03.2026 08:54 6,1 °C 5,6 °C 1,7 °C 97 % 1018,0 hPa 0,0 l/m² 0 min 32 W/m² 3,2 km/h (1 Bft) 98,31 %
28.03.2026 08:56 6,1 °C 5,6 °C 1,7 °C 97 % 1017,9 hPa 0,0 l/m² 0 min 35 W/m² 6,4 km/h (2 Bft) 97,14 %
28.03.2026 08:58 6,1 °C 5,6 °C 1,7 °C 97 % 1017,9 hPa 0,0 l/m² 0 min 35 W/m² 6,4 km/h (2 Bft) 97,87 %
28.03.2026 09:00 6,1 °C 5,6 °C 2,2 °C 97 % 1017,9 hPa 0,2 l/m² 0 min 35 W/m² 3,2 km/h (1 Bft) 97,87 %
28.03.2026 09:02 6,2 °C 5,6 °C 2,2 °C 97 % 1017,9 hPa 0,0 l/m² 0 min 37 W/m² 3,2 km/h (1 Bft) 98,11 %
28.03.2026 09:04 6,2 °C 5,6 °C 1,7 °C 97 % 1017,9 hPa 0,0 l/m² 0 min 40 W/m² 6,4 km/h (2 Bft) 97,87 %
28.03.2026 09:06 6,2 °C 5,6 °C 2,2 °C 97 % 1017,9 hPa 0,2 l/m² 0 min 42 W/m² 3,2 km/h (1 Bft) 97,87 %
28.03.2026 09:08 6,2 °C 5,6 °C 2,2 °C 97 % 1017,9 hPa 0,0 l/m² 0 min 38 W/m² 3,2 km/h (1 Bft) 95,65 %
28.03.2026 09:10 6,2 °C 5,6 °C 2,2 °C 97 % 1018,0 hPa 0,0 l/m² 0 min 29 W/m² 6,4 km/h (2 Bft) 93,62 %
28.03.2026 09:12 6,2 °C 5,6 °C 2,2 °C 97 % 1018,0 hPa 0,2 l/m² 0 min 24 W/m² 6,4 km/h (2 Bft) 96,00 %
28.03.2026 09:14 6,2 °C 5,6 °C 2,2 °C 97 % 1018,0 hPa 0,0 l/m² 0 min 29 W/m² 3,2 km/h (1 Bft) 97,87 %
28.03.2026 09:16 6,2 °C 5,6 °C 2,2 °C 97 % 1018,0 hPa 0,0 l/m² 0 min 41 W/m² 6,4 km/h (2 Bft) 95,83 %
28.03.2026 09:18 6,2 °C 5,6 °C 2,2 °C 97 % 1018,0 hPa 0,2 l/m² 0 min 47 W/m² 6,4 km/h (2 Bft) 98,36 %
28.03.2026 09:20 6,2 °C 5,6 °C 2,2 °C 97 % 1018,1 hPa 0,0 l/m² 0 min 45 W/m² 3,2 km/h (1 Bft) 97,87 %
28.03.2026 09:22 6,2 °C 6,1 °C 2,2 °C 97 % 1018,1 hPa 0,0 l/m² 0 min 48 W/m² 6,4 km/h (2 Bft) 97,87 %
28.03.2026 09:24 6,3 °C 6,1 °C 2,2 °C 97 % 1018,1 hPa 0,0 l/m² 0 min 51 W/m² 3,2 km/h (1 Bft) 98,00 %
28.03.2026 09:26 6,3 °C 6,1 °C 2,2 °C 97 % 1018,2 hPa 0,2 l/m² 0 min 57 W/m² 6,4 km/h (2 Bft) 98,00 %
28.03.2026 09:28 6,3 °C 6,1 °C 2,2 °C 97 % 1018,2 hPa 0,0 l/m² 0 min 73 W/m² 6,4 km/h (2 Bft) 98,00 %
28.03.2026 09:30 6,3 °C 6,1 °C 2,2 °C 97 % 1018,1 hPa 0,0 l/m² 0 min 84 W/m² 6,4 km/h (2 Bft) 97,87 %
28.03.2026 09:32 6,4 °C 6,1 °C 2,2 °C 97 % 1018,2 hPa 0,0 l/m² 0 min 86 W/m² 9,7 km/h (2 Bft) 97,56 %
28.03.2026 09:34 6,3 °C 6,1 °C 2,2 °C 97 % 1018,2 hPa 0,2 l/m² 0 min 76 W/m² 6,4 km/h (2 Bft) 97,87 %
28.03.2026 09:36 6,4 °C 6,1 °C 2,2 °C 97 % 1018,2 hPa 0,0 l/m² 0 min 59 W/m² 6,4 km/h (2 Bft) 95,74 %
28.03.2026 09:38 6,4 °C 6,1 °C 2,2 °C 97 % 1018,2 hPa 0,0 l/m² 0 min 52 W/m² 6,4 km/h (2 Bft) 96,00 %
28.03.2026 09:40 6,4 °C 6,1 °C 2,2 °C 97 % 1018,2 hPa 0,0 l/m² 0 min 46 W/m² 3,2 km/h (1 Bft) 100,00 %
28.03.2026 09:42 6,4 °C 6,1 °C 2,2 °C 97 % 1018,3 hPa 0,2 l/m² 0 min 47 W/m² 6,4 km/h (2 Bft) 100,00 %
28.03.2026 09:44 6,4 °C 6,1 °C 2,2 °C 97 % 1018,3 hPa 0,2 l/m² 0 min 47 W/m² 6,4 km/h (2 Bft) 100,00 %
28.03.2026 09:46 6,4 °C 6,1 °C 2,2 °C 97 % 1018,3 hPa 0,0 l/m² 0 min 43 W/m² 6,4 km/h (2 Bft) 97,87 %
28.03.2026 09:48 6,4 °C 6,1 °C 2,2 °C 97 % 1018,3 hPa 0,2 l/m² 0 min 39 W/m² 6,4 km/h (2 Bft) 100,00 %
28.03.2026 09:50 6,4 °C 6,1 °C 2,2 °C 97 % 1018,3 hPa 0,2 l/m² 0 min 42 W/m² 6,4 km/h (2 Bft) 97,87 %
28.03.2026 09:52 6,4 °C 6,1 °C 2,2 °C 98 % 1018,4 hPa 0,0 l/m² 0 min 46 W/m² 9,7 km/h (2 Bft) 100,00 %
28.03.2026 09:54 6,4 °C 6,1 °C 2,2 °C 97 % 1018,4 hPa 0,0 l/m² 0 min 48 W/m² 6,4 km/h (2 Bft) 100,00 %
28.03.2026 09:56 6,4 °C 6,1 °C 2,2 °C 98 % 1018,3 hPa 0,0 l/m² 0 min 52 W/m² 9,7 km/h (2 Bft) 100,00 %
28.03.2026 09:58 6,5 °C 6,1 °C 2,2 °C 98 % 1018,3 hPa 0,0 l/m² 0 min 65 W/m² 12,9 km/h (3 Bft) 100,00 %
28.03.2026 10:00 6,5 °C 6,1 °C 2,2 °C 98 % 1018,3 hPa 0,0 l/m² 0 min 77 W/m² 12,9 km/h (3 Bft) 100,00 %
28.03.2026 10:02 6,5 °C 6,1 °C 2,2 °C 98 % 1018,3 hPa 0,0 l/m² 0 min 69 W/m² 9,7 km/h (2 Bft) 100,00 %
28.03.2026 10:04 6,5 °C 6,1 °C 2,2 °C 98 % 1018,3 hPa 0,0 l/m² 0 min 60 W/m² 6,4 km/h (2 Bft) 100,00 %
28.03.2026 10:06 6,5 °C 6,1 °C 2,2 °C 98 % 1018,3 hPa 0,0 l/m² 0 min 70 W/m² 3,2 km/h (1 Bft) 100,00 %
28.03.2026 10:08 6,5 °C 6,1 °C 2,2 °C 98 % 1018,3 hPa 0,0 l/m² 0 min 65 W/m² 9,7 km/h (2 Bft) 100,00 %
28.03.2026 10:10 6,6 °C 6,1 °C 2,2 °C 98 % 1018,4 hPa 0,0 l/m² 0 min 56 W/m² 12,9 km/h (3 Bft) 100,00 %
28.03.2026 10:12 6,6 °C 6,7 °C 2,2 °C 98 % 1018,4 hPa 0,0 l/m² 0 min 78 W/m² 6,4 km/h (2 Bft) 95,74 %
28.03.2026 10:14 6,6 °C 6,7 °C 2,2 °C 98 % 1018,4 hPa 0,0 l/m² 0 min 97 W/m² 16,1 km/h (3 Bft) 97,87 %
28.03.2026 10:16 6,6 °C 6,7 °C 2,8 °C 98 % 1018,4 hPa 0,0 l/m² 0 min 89 W/m² 6,4 km/h (2 Bft) 100,00 %
28.03.2026 10:18 6,7 °C 6,7 °C 2,8 °C 98 % 1018,4 hPa 0,0 l/m² 0 min 86 W/m² 3,2 km/h (1 Bft) 100,00 %
28.03.2026 10:20 6,7 °C 6,7 °C 2,8 °C 98 % 1018,4 hPa 0,0 l/m² 0 min 101 W/m² 16,1 km/h (3 Bft) 100,00 %
28.03.2026 10:22 6,7 °C 6,7 °C 2,8 °C 98 % 1018,4 hPa 0,0 l/m² 0 min 139 W/m² 6,4 km/h (2 Bft) 100,00 %
28.03.2026 10:24 6,8 °C 7,2 °C 2,8 °C 98 % 1018,4 hPa 0,0 l/m² 0 min 160 W/m² 6,4 km/h (2 Bft) 100,00 %
28.03.2026 10:26 6,9 °C 7,2 °C 2,8 °C 98 % 1018,4 hPa 0,0 l/m² 0 min 149 W/m² 9,7 km/h (2 Bft) 96,00 %
28.03.2026 10:28 6,9 °C 7,2 °C 2,8 °C 98 % 1018,5 hPa 0,0 l/m² 0 min 99 W/m² 12,9 km/h (3 Bft) 100,00 %
28.03.2026 10:30 6,9 °C 7,2 °C 2,8 °C 98 % 1018,5 hPa 0,0 l/m² 0 min 103 W/m² 12,9 km/h (3 Bft) 96,00 %
28.03.2026 10:32 7,0 °C 7,2 °C 2,8 °C 98 % 1018,5 hPa 0,0 l/m² 0 min 81 W/m² 12,9 km/h (3 Bft) 97,87 %
28.03.2026 10:34 7,0 °C 6,7 °C 2,8 °C 98 % 1018,5 hPa 0,0 l/m² 0 min 59 W/m² 6,4 km/h (2 Bft) 95,74 %
28.03.2026 10:36 7,1 °C 6,7 °C 2,8 °C 98 % 1018,5 hPa 0,0 l/m² 0 min 44 W/m² 9,7 km/h (2 Bft) 96,00 %
28.03.2026 10:38 7,1 °C 6,7 °C 2,8 °C 98 % 1018,5 hPa 0,0 l/m² 0 min 33 W/m² 9,7 km/h (2 Bft) 97,96 %
28.03.2026 10:40 7,1 °C 6,7 °C 2,8 °C 98 % 1018,5 hPa 0,5 l/m² 0 min 31 W/m² 6,4 km/h (2 Bft) 98,00 %
28.03.2026 10:42 7,0 °C 6,7 °C 2,8 °C 98 % 1018,5 hPa 0,0 l/m² 0 min 27 W/m² 12,9 km/h (3 Bft) 94,87 %
28.03.2026 10:44 7,0 °C 6,7 °C 2,8 °C 98 % 1018,5 hPa 0,5 l/m² 0 min 23 W/m² 12,9 km/h (3 Bft) 95,74 %
28.03.2026 10:46 6,9 °C 6,1 °C 2,2 °C 98 % 1018,5 hPa 0,2 l/m² 0 min 18 W/m² 9,7 km/h (2 Bft) 95,74 %
28.03.2026 10:48 6,9 °C 6,1 °C 2,2 °C 98 % 1018,6 hPa 0,0 l/m² 0 min 14 W/m² 12,9 km/h (3 Bft) 97,87 %
28.03.2026 10:50 6,8 °C 6,1 °C 2,2 °C 98 % 1018,7 hPa 0,0 l/m² 0 min 18 W/m² 22,5 km/h (4 Bft) 97,83 %
28.03.2026 10:52 6,8 °C 6,1 °C 2,2 °C 98 % 1018,8 hPa 0,2 l/m² 0 min 19 W/m² 19,3 km/h (3 Bft) 95,74 %
28.03.2026 10:54 6,7 °C 6,1 °C 2,2 °C 98 % 1018,7 hPa 0,2 l/m² 0 min 21 W/m² 19,3 km/h (3 Bft) 97,87 %
28.03.2026 10:56 6,7 °C 6,1 °C 2,2 °C 98 % 1018,7 hPa 0,0 l/m² 0 min 31 W/m² 12,9 km/h (3 Bft) 93,62 %
28.03.2026 10:58 6,6 °C 6,1 °C 2,2 °C 98 % 1018,7 hPa 0,0 l/m² 0 min 36 W/m² 22,5 km/h (4 Bft) 95,74 %
28.03.2026 11:00 6,6 °C 6,1 °C 2,2 °C 98 % 1018,7 hPa 0,0 l/m² 0 min 33 W/m² 25,7 km/h (4 Bft) 95,74 %
28.03.2026 11:02 6,6 °C 6,1 °C 2,2 °C 98 % 1018,7 hPa 0,0 l/m² 0 min 40 W/m² 25,7 km/h (4 Bft) 94,00 %
28.03.2026 11:04 6,5 °C 6,1 °C 2,2 °C 98 % 1018,8 hPa 0,0 l/m² 0 min 59 W/m² 19,3 km/h (3 Bft) 93,62 %
28.03.2026 11:06 6,5 °C 6,1 °C 2,2 °C 98 % 1018,8 hPa 0,0 l/m² 0 min 82 W/m² 12,9 km/h (3 Bft) 93,62 %
28.03.2026 11:08 6,5 °C 6,1 °C 2,2 °C 98 % 1018,8 hPa 0,0 l/m² 0 min 115 W/m² 22,5 km/h (4 Bft) 95,74 %
28.03.2026 11:10 6,5 °C 6,7 °C 2,2 °C 98 % 1018,8 hPa 0,0 l/m² 0 min 133 W/m² 16,1 km/h (3 Bft) 91,49 %
28.03.2026 11:12 6,5 °C 6,7 °C 2,2 °C 98 % 1018,9 hPa 0,0 l/m² 0 min 156 W/m² 19,3 km/h (3 Bft) 94,00 %
28.03.2026 11:14 6,6 °C 6,7 °C 2,2 °C 98 % 1018,9 hPa 0,0 l/m² 0 min 178 W/m² 22,5 km/h (4 Bft) 95,74 %
28.03.2026 11:16 6,6 °C 6,7 °C 2,2 °C 98 % 1018,9 hPa 0,0 l/m² 0 min 188 W/m² 19,3 km/h (3 Bft) 97,14 %
28.03.2026 11:18 6,6 °C 7,2 °C 2,2 °C 98 % 1018,9 hPa 0,0 l/m² 0 min 205 W/m² 19,3 km/h (3 Bft) 94,64 %
28.03.2026 11:20 6,6 °C 7,2 °C 2,2 °C 98 % 1018,9 hPa 0,0 l/m² 0 min 219 W/m² 41,8 km/h (6 Bft) 93,33 %
28.03.2026 11:22 6,6 °C 7,2 °C 2,2 °C 98 % 1018,9 hPa 0,0 l/m² 0 min 223 W/m² 29,0 km/h (5 Bft) 95,74 %
28.03.2026 11:24 6,6 °C 7,2 °C 2,8 °C 98 % 1018,9 hPa 0,0 l/m² 0 min 224 W/m² 35,4 km/h (5 Bft) 96,00 %
28.03.2026 11:26 6,7 °C 7,2 °C 2,8 °C 98 % 1018,9 hPa 0,0 l/m² 0 min 219 W/m² 22,5 km/h (4 Bft) 93,62 %
28.03.2026 11:28 6,7 °C 7,8 °C 2,8 °C 98 % 1019,0 hPa 0,0 l/m² 0 min 208 W/m² 25,7 km/h (4 Bft) 94,00 %
28.03.2026 11:30 6,7 °C 7,8 °C 2,8 °C 98 % 1019,1 hPa 0,0 l/m² 0 min 198 W/m² 29,0 km/h (5 Bft) 95,74 %
28.03.2026 11:32 6,7 °C 7,8 °C 2,2 °C 98 % 1019,0 hPa 0,0 l/m² 0 min 194 W/m² 25,7 km/h (4 Bft) 97,87 %
28.03.2026 11:34 6,7 °C 7,8 °C 2,2 °C 98 % 1019,1 hPa 0,0 l/m² 0 min 193 W/m² 38,6 km/h (5 Bft) 97,87 %
28.03.2026 11:36 6,7 °C 7,8 °C 2,2 °C 98 % 1019,1 hPa 0,0 l/m² 0 min 190 W/m² 29,0 km/h (5 Bft) 97,37 %
28.03.2026 11:38 6,7 °C 7,8 °C 2,2 °C 97 % 1019,1 hPa 0,0 l/m² 0 min 190 W/m² 35,4 km/h (5 Bft) 97,87 %
28.03.2026 11:40 6,7 °C 7,8 °C 2,2 °C 97 % 1019,1 hPa 0,0 l/m² 0 min 191 W/m² 35,4 km/h (5 Bft) 97,87 %
28.03.2026 11:42 6,7 °C 7,8 °C 2,2 °C 97 % 1019,2 hPa 0,0 l/m² 0 min 199 W/m² 19,3 km/h (3 Bft) 97,87 %
28.03.2026 11:44 6,7 °C 7,8 °C 2,2 °C 97 % 1019,2 hPa 0,0 l/m² 0 min 203 W/m² 35,4 km/h (5 Bft) 97,87 %
28.03.2026 11:46 6,7 °C 7,8 °C 2,2 °C 97 % 1019,3 hPa 0,0 l/m² 0 min 196 W/m² 29,0 km/h (5 Bft) 97,87 %
28.03.2026 11:48 6,7 °C 7,8 °C 2,2 °C 97 % 1019,4 hPa 0,0 l/m² 0 min 202 W/m² 25,7 km/h (4 Bft) 98,00 %
28.03.2026 11:50 6,8 °C 7,8 °C 2,2 °C 97 % 1019,3 hPa 0,0 l/m² 0 min 210 W/m² 32,2 km/h (5 Bft) 97,87 %
28.03.2026 11:52 6,8 °C 7,8 °C 2,2 °C 97 % 1019,3 hPa 0,0 l/m² 0 min 212 W/m² 32,2 km/h (5 Bft) 95,24 %
28.03.2026 11:54 6,8 °C 7,8 °C 2,2 °C 97 % 1019,4 hPa 0,0 l/m² 0 min 218 W/m² 25,7 km/h (4 Bft) 97,87 %
28.03.2026 11:56 6,8 °C 7,8 °C 2,2 °C 97 % 1019,4 hPa 0,0 l/m² 0 min 222 W/m² 22,5 km/h (4 Bft) 100,00 %
28.03.2026 11:58 6,9 °C 7,8 °C 2,2 °C 97 % 1019,4 hPa 0,0 l/m² 0 min 224 W/m² 22,5 km/h (4 Bft) 100,00 %
28.03.2026 12:00 6,9 °C 8,3 °C 2,8 °C 97 % 1019,4 hPa 0,0 l/m² 0 min 238 W/m² 22,5 km/h (4 Bft) 100,00 %
28.03.2026 12:02 7,0 °C 8,3 °C 2,8 °C 97 % 1019,4 hPa 0,0 l/m² 0 min 214 W/m² 29,0 km/h (5 Bft) 97,96 %
28.03.2026 12:04 7,0 °C 7,8 °C 2,2 °C 97 % 1019,4 hPa 0,0 l/m² 0 min 192 W/m² 29,0 km/h (5 Bft) 97,87 %
28.03.2026 12:06 7,0 °C 8,3 °C 2,8 °C 97 % 1019,4 hPa 0,0 l/m² 0 min 202 W/m² 22,5 km/h (4 Bft) 96,08 %
28.03.2026 12:08 7,1 °C 8,3 °C 2,8 °C 96 % 1019,4 hPa 0,0 l/m² 0 min 222 W/m² 25,7 km/h (4 Bft) 97,22 %
28.03.2026 12:10 7,1 °C 8,3 °C 2,8 °C 96 % 1019,5 hPa 0,0 l/m² 0 min 207 W/m² 16,1 km/h (3 Bft) 100,00 %
28.03.2026 12:12 7,2 °C 8,3 °C 2,8 °C 96 % 1019,5 hPa 0,0 l/m² 0 min 198 W/m² 22,5 km/h (4 Bft) 100,00 %
28.03.2026 12:14 7,2 °C 8,3 °C 2,8 °C 96 % 1019,5 hPa 0,0 l/m² 0 min 201 W/m² 29,0 km/h (5 Bft) 100,00 %
28.03.2026 12:16 7,2 °C 8,3 °C 2,2 °C 96 % 1019,5 hPa 0,0 l/m² 0 min 185 W/m² 25,7 km/h (4 Bft) 100,00 %
28.03.2026 12:18 7,2 °C 8,3 °C 2,8 °C 96 % 1019,6 hPa 0,0 l/m² 0 min 160 W/m² 19,3 km/h (3 Bft) 98,00 %
28.03.2026 12:20 7,3 °C 7,8 °C 2,8 °C 95 % 1019,6 hPa 0,0 l/m² 0 min 149 W/m² 22,5 km/h (4 Bft) 95,74 %
28.03.2026 12:22 7,3 °C 8,3 °C 2,8 °C 95 % 1019,5 hPa 0,0 l/m² 0 min 168 W/m² 19,3 km/h (3 Bft) 97,22 %
28.03.2026 12:24 7,3 °C 8,3 °C 2,8 °C 95 % 1019,5 hPa 0,0 l/m² 0 min 209 W/m² 25,7 km/h (4 Bft) 100,00 %
28.03.2026 12:26 7,3 °C 8,3 °C 2,8 °C 95 % 1019,4 hPa 0,0 l/m² 0 min 245 W/m² 22,5 km/h (4 Bft) 100,00 %
28.03.2026 12:28 7,4 °C 8,9 °C 2,8 °C 95 % 1019,4 hPa 0,0 l/m² 0 min 260 W/m² 22,5 km/h (4 Bft) 98,00 %
28.03.2026 12:30 7,4 °C 8,9 °C 2,8 °C 95 % 1019,4 hPa 0,0 l/m² 0 min 246 W/m² 16,1 km/h (3 Bft) 100,00 %
28.03.2026 12:32 7,5 °C 8,9 °C 2,8 °C 94 % 1019,5 hPa 0,0 l/m² 0 min 274 W/m² 25,7 km/h (4 Bft) 100,00 %
28.03.2026 12:34 7,6 °C 9,4 °C 2,8 °C 94 % 1019,4 hPa 0,0 l/m² 0 min 288 W/m² 19,3 km/h (3 Bft) 100,00 %
28.03.2026 12:36 7,6 °C 9,4 °C 3,3 °C 94 % 1019,5 hPa 0,0 l/m² 0 min 305 W/m² 25,7 km/h (4 Bft) 100,00 %
28.03.2026 12:38 7,7 °C 9,4 °C 3,3 °C 94 % 1019,4 hPa 0,0 l/m² 0 min 312 W/m² 19,3 km/h (3 Bft) 98,00 %
28.03.2026 12:40 7,8 °C 10,0 °C 3,3 °C 94 % 1019,4 hPa 0,0 l/m² 0 min 319 W/m² 16,1 km/h (3 Bft) 97,87 %
28.03.2026 12:42 7,9 °C 10,0 °C 3,3 °C 94 % 1019,4 hPa 0,0 l/m² 0 min 316 W/m² 16,1 km/h (3 Bft) 100,00 %
28.03.2026 12:44 7,9 °C 10,6 °C 3,3 °C 93 % 1019,4 hPa 0,0 l/m² 0 min 302 W/m² 19,3 km/h (3 Bft) 100,00 %
28.03.2026 12:46 8,1 °C 10,6 °C 3,3 °C 93 % 1019,4 hPa 0,0 l/m² 0 min 314 W/m² 19,3 km/h (3 Bft) 97,87 %
28.03.2026 12:48 8,1 °C 10,6 °C 3,3 °C 93 % 1019,4 hPa 0,0 l/m² 0 min 304 W/m² 19,3 km/h (3 Bft) 97,37 %
28.03.2026 12:50 8,2 °C 10,6 °C 3,3 °C 92 % 1019,5 hPa 0,0 l/m² 0 min 249 W/m² 16,1 km/h (3 Bft) 98,00 %
28.03.2026 12:52 8,2 °C 10,0 °C 3,3 °C 92 % 1019,5 hPa 0,0 l/m² 0 min 187 W/m² 16,1 km/h (3 Bft) 97,87 %
28.03.2026 12:54 8,2 °C 9,4 °C 3,3 °C 92 % 1019,5 hPa 0,0 l/m² 0 min 163 W/m² 16,1 km/h (3 Bft) 97,87 %
28.03.2026 12:56 8,3 °C 9,4 °C 2,8 °C 91 % 1019,5 hPa 0,0 l/m² 0 min 121 W/m² 19,3 km/h (3 Bft) 98,15 %
28.03.2026 12:58 8,2 °C 8,9 °C 2,8 °C 91 % 1019,5 hPa 0,0 l/m² 0 min 90 W/m² 22,5 km/h (4 Bft) 97,14 %
28.03.2026 13:00 8,2 °C 8,3 °C 2,8 °C 91 % 1019,5 hPa 0,2 l/m² 0 min 98 W/m² 16,1 km/h (3 Bft) 95,74 %
28.03.2026 13:02 8,2 °C 8,3 °C 2,8 °C 90 % 1019,6 hPa 0,0 l/m² 0 min 158 W/m² 16,1 km/h (3 Bft) 95,74 %
28.03.2026 13:04 8,1 °C 10,6 °C 2,8 °C 90 % 1019,6 hPa 0,0 l/m² 0 min 236 W/m² 19,3 km/h (3 Bft) 97,87 %
28.03.2026 13:06 8,2 °C 12,2 °C 2,8 °C 90 % 1019,6 hPa 0,0 l/m² 0 min 239 W/m² 22,5 km/h (4 Bft) 94,92 %
28.03.2026 13:08 8,2 °C 12,2 °C 3,3 °C 90 % 1019,6 hPa 0,0 l/m² 0 min 271 W/m² 9,7 km/h (2 Bft) 97,22 %
28.03.2026 13:10 8,3 °C 15,0 °C 3,3 °C 90 % 1019,5 hPa 0,0 l/m² 2 min 345 W/m² 6,4 km/h (2 Bft) 97,87 %
28.03.2026 13:12 8,6 °C 17,2 °C 3,9 °C 90 % 1019,5 hPa 0,0 l/m² 2 min 727 W/m² 22,5 km/h (4 Bft) 95,74 %
28.03.2026 13:14 8,8 °C 18,9 °C 4,4 °C 90 % 1019,5 hPa 0,0 l/m² 2 min 710 W/m² 9,7 km/h (2 Bft) 98,00 %
28.03.2026 13:16 9,1 °C 19,4 °C 4,4 °C 90 % 1019,4 hPa 0,0 l/m² 2 min 710 W/m² 16,1 km/h (3 Bft) 97,96 %
28.03.2026 13:18 9,3 °C 20,0 °C 4,4 °C 90 % 1019,4 hPa 0,0 l/m² 2 min 711 W/m² 19,3 km/h (3 Bft) 97,87 %
28.03.2026 13:20 9,5 °C 21,1 °C 5,0 °C 89 % 1019,4 hPa 0,0 l/m² 2 min 726 W/m² 12,9 km/h (3 Bft) 97,87 %
28.03.2026 13:22 9,8 °C 21,1 °C 5,0 °C 88 % 1019,3 hPa 0,0 l/m² 2 min 736 W/m² 6,4 km/h (2 Bft) 98,00 %
28.03.2026 13:24 10,1 °C 21,7 °C 5,0 °C 88 % 1019,4 hPa 0,0 l/m² 2 min 708 W/m² 12,9 km/h (3 Bft) 100,00 %
28.03.2026 13:26 10,3 °C 21,1 °C 5,6 °C 86 % 1019,3 hPa 0,0 l/m² 2 min 709 W/m² 19,3 km/h (3 Bft) 97,37 %
28.03.2026 13:28 10,5 °C 21,7 °C 5,6 °C 85 % 1019,4 hPa 0,0 l/m² 2 min 743 W/m² 22,5 km/h (4 Bft) 100,00 %
28.03.2026 13:30 10,7 °C 19,4 °C 5,6 °C 84 % 1019,4 hPa 0,0 l/m² 2 min 807 W/m² 22,5 km/h (4 Bft) 100,00 %
28.03.2026 13:32 10,7 °C 16,1 °C 5,6 °C 82 % 1019,4 hPa 0,0 l/m² 0 min 298 W/m² 19,3 km/h (3 Bft) 100,00 %
28.03.2026 13:34 10,7 °C 13,3 °C 5,0 °C 81 % 1019,6 hPa 0,0 l/m² 0 min 145 W/m² 19,3 km/h (3 Bft) 100,00 %
28.03.2026 13:36 10,6 °C 11,7 °C 5,0 °C 80 % 1019,7 hPa 0,0 l/m² 0 min 102 W/m² 19,3 km/h (3 Bft) 96,00 %
28.03.2026 13:38 10,0 °C 9,4 °C 4,4 °C 78 % 1019,8 hPa 0,0 l/m² 0 min 62 W/m² 35,4 km/h (5 Bft) 97,87 %
28.03.2026 13:40 9,2 °C 7,8 °C 3,3 °C 78 % 1019,8 hPa 0,0 l/m² 0 min 75 W/m² 22,5 km/h (4 Bft) 95,74 %
28.03.2026 13:42 8,7 °C 7,2 °C 3,3 °C 78 % 1019,7 hPa 0,0 l/m² 0 min 94 W/m² 25,7 km/h (4 Bft) 97,87 %
28.03.2026 13:44 8,3 °C 7,2 °C 2,8 °C 79 % 1019,8 hPa 0,0 l/m² 0 min 105 W/m² 19,3 km/h (3 Bft) 97,87 %
28.03.2026 13:46 8,0 °C 7,2 °C 2,8 °C 80 % 1019,7 hPa 0,0 l/m² 0 min 119 W/m² 22,5 km/h (4 Bft) 95,74 %
28.03.2026 13:48 7,8 °C 7,2 °C 2,8 °C 81 % 1019,6 hPa 0,0 l/m² 0 min 135 W/m² 16,1 km/h (3 Bft) 97,87 %
28.03.2026 13:50 7,7 °C 7,2 °C 2,8 °C 81 % 1019,7 hPa 0,0 l/m² 0 min 159 W/m² 12,9 km/h (3 Bft) 95,74 %
28.03.2026 13:52 7,6 °C 7,2 °C 2,8 °C 82 % 1019,6 hPa 0,0 l/m² 0 min 189 W/m² 12,9 km/h (3 Bft) 97,37 %
28.03.2026 13:54 7,5 °C 7,8 °C 3,3 °C 82 % 1019,6 hPa 0,0 l/m² 0 min 217 W/m² 9,7 km/h (2 Bft) 95,74 %
28.03.2026 13:56 7,6 °C 7,8 °C 3,3 °C 83 % 1019,6 hPa 0,0 l/m² 0 min 244 W/m² 16,1 km/h (3 Bft) 96,00 %
28.03.2026 13:58 7,6 °C 8,3 °C 3,9 °C 83 % 1019,7 hPa 0,0 l/m² 0 min 257 W/m² 16,1 km/h (3 Bft) 98,11 %
28.03.2026 14:00 7,7 °C 8,9 °C 3,9 °C 84 % 1019,7 hPa 0,0 l/m² 0 min 262 W/m² 32,2 km/h (5 Bft) 95,74 %
28.03.2026 14:02 7,8 °C 8,9 °C 3,9 °C 84 % 1019,7 hPa 0,0 l/m² 0 min 270 W/m² 12,9 km/h (3 Bft) 91,43 %
28.03.2026 14:04 7,9 °C 9,4 °C 4,4 °C 84 % 1019,7 hPa 0,0 l/m² 0 min 285 W/m² 16,1 km/h (3 Bft) 96,00 %
28.03.2026 14:06 8,1 °C 9,4 °C 4,4 °C 84 % 1019,7 hPa 0,0 l/m² 2 min 312 W/m² 19,3 km/h (3 Bft) 96,00 %
28.03.2026 14:08 8,2 °C 10,6 °C 4,4 °C 84 % 1019,6 hPa 0,0 l/m² 2 min 394 W/m² 19,3 km/h (3 Bft) 96,00 %
28.03.2026 14:10 8,3 °C 11,7 °C 5,0 °C 84 % 1019,6 hPa 0,0 l/m² 2 min 437 W/m² 16,1 km/h (3 Bft) 95,24 %
28.03.2026 14:12 8,4 °C 11,7 °C 5,0 °C 84 % 1019,6 hPa 0,0 l/m² 2 min 389 W/m² 25,7 km/h (4 Bft) 97,87 %
28.03.2026 14:14 8,6 °C 12,2 °C 5,0 °C 83 % 1019,6 hPa 0,0 l/m² 2 min 387 W/m² 19,3 km/h (3 Bft) 91,49 %
28.03.2026 14:16 8,8 °C 12,8 °C 5,6 °C 83 % 1019,7 hPa 0,0 l/m² 2 min 483 W/m² 19,3 km/h (3 Bft) 95,74 %
28.03.2026 14:18 8,9 °C 12,2 °C 5,6 °C 83 % 1019,6 hPa 0,0 l/m² 2 min 383 W/m² 25,7 km/h (4 Bft) 95,74 %
28.03.2026 14:20 9,1 °C 12,8 °C 5,6 °C 82 % 1019,7 hPa 0,0 l/m² 2 min 374 W/m² 19,3 km/h (3 Bft) 96,30 %
28.03.2026 14:22 9,2 °C 12,2 °C 5,6 °C 82 % 1019,7 hPa 0,0 l/m² 2 min 392 W/m² 16,1 km/h (3 Bft) 94,29 %
28.03.2026 14:24 9,3 °C 11,7 °C 5,6 °C 81 % 1019,7 hPa 0,0 l/m² 2 min 349 W/m² 12,9 km/h (3 Bft) 94,55 %
28.03.2026 14:26 9,3 °C 11,7 °C 5,6 °C 81 % 1019,8 hPa 0,0 l/m² 2 min 349 W/m² 12,9 km/h (3 Bft) 95,74 %
28.03.2026 14:28 9,4 °C 11,7 °C 5,6 °C 81 % 1019,8 hPa 0,0 l/m² 2 min 367 W/m² 22,5 km/h (4 Bft) 91,49 %
28.03.2026 14:30 9,4 °C 11,7 °C 5,6 °C 81 % 1019,8 hPa 0,0 l/m² 2 min 336 W/m² 22,5 km/h (4 Bft) 97,37 %
28.03.2026 14:32 9,5 °C 11,1 °C 5,6 °C 80 % 1019,8 hPa 0,0 l/m² 0 min 282 W/m² 19,3 km/h (3 Bft) 94,00 %
28.03.2026 14:34 9,5 °C 11,1 °C 5,6 °C 80 % 1019,8 hPa 0,0 l/m² 0 min 257 W/m² 12,9 km/h (3 Bft) 97,87 %
28.03.2026 14:36 9,6 °C 11,1 °C 5,6 °C 80 % 1019,8 hPa 0,0 l/m² 0 min 289 W/m² 9,7 km/h (2 Bft) 98,00 %
28.03.2026 14:38 9,6 °C 11,7 °C 6,1 °C 81 % 1019,8 hPa 0,0 l/m² 2 min 318 W/m² 12,9 km/h (3 Bft) 95,65 %
28.03.2026 14:40 9,7 °C 11,7 °C 6,1 °C 81 % 1019,8 hPa 0,0 l/m² 2 min 322 W/m² 12,9 km/h (3 Bft) 95,74 %
28.03.2026 14:42 9,7 °C 11,7 °C 6,1 °C 80 % 1019,8 hPa 0,0 l/m² 0 min 283 W/m² 22,5 km/h (4 Bft) 94,00 %
28.03.2026 14:44 9,7 °C 11,1 °C 6,1 °C 79 % 1019,8 hPa 0,0 l/m² 0 min 193 W/m² 22,5 km/h (4 Bft) 95,74 %
28.03.2026 14:46 9,7 °C 10,6 °C 5,6 °C 78 % 1019,8 hPa 0,0 l/m² 0 min 166 W/m² 12,9 km/h (3 Bft) 95,74 %
28.03.2026 14:48 9,7 °C 10,0 °C 5,6 °C 77 % 1019,8 hPa 0,0 l/m² 0 min 160 W/m² 29,0 km/h (5 Bft) 93,62 %
28.03.2026 14:50 9,6 °C 11,1 °C 5,6 °C 76 % 1019,8 hPa 0,0 l/m² 0 min 253 W/m² 25,7 km/h (4 Bft) 93,62 %
28.03.2026 14:52 9,7 °C 12,2 °C 6,1 °C 75 % 1019,8 hPa 0,0 l/m² 2 min 318 W/m² 32,2 km/h (5 Bft) 93,62 %
28.03.2026 14:54 9,7 °C 11,7 °C 6,1 °C 74 % 1019,8 hPa 0,0 l/m² 2 min 283 W/m² 38,6 km/h (5 Bft) 95,12 %
28.03.2026 14:56 9,7 °C 11,7 °C 6,1 °C 72 % 1019,8 hPa 0,0 l/m² 2 min 287 W/m² 29,0 km/h (5 Bft) 95,74 %
28.03.2026 14:58 9,7 °C 11,7 °C 6,1 °C 70 % 1019,8 hPa 0,0 l/m² 2 min 289 W/m² 32,2 km/h (5 Bft) 95,74 %
28.03.2026 15:00 9,7 °C 11,7 °C 6,1 °C 69 % 1019,8 hPa 0,0 l/m² 2 min 295 W/m² 25,7 km/h (4 Bft) 96,00 %
28.03.2026 15:02 9,8 °C 12,8 °C 6,1 °C 68 % 1019,7 hPa 0,0 l/m² 2 min 292 W/m² 19,3 km/h (3 Bft) 97,62 %
28.03.2026 15:04 9,8 °C 12,2 °C 6,1 °C 68 % 1019,8 hPa 0,0 l/m² 0 min 259 W/m² 25,7 km/h (4 Bft) 97,87 %
28.03.2026 15:06 9,9 °C 12,2 °C 6,1 °C 67 % 1019,7 hPa 0,0 l/m² 0 min 259 W/m² 22,5 km/h (4 Bft) 97,87 %
28.03.2026 15:08 9,9 °C 11,7 °C 6,1 °C 67 % 1019,8 hPa 0,0 l/m² 2 min 290 W/m² 22,5 km/h (4 Bft) 97,87 %
28.03.2026 15:10 10,0 °C 12,8 °C 6,1 °C 67 % 1019,7 hPa 0,0 l/m² 2 min 341 W/m² 19,3 km/h (3 Bft) 98,00 %
28.03.2026 15:12 10,1 °C 13,3 °C 6,7 °C 68 % 1019,8 hPa 0,0 l/m² 2 min 330 W/m² 19,3 km/h (3 Bft) 96,00 %
28.03.2026 15:14 10,2 °C 12,8 °C 6,7 °C 68 % 1019,8 hPa 0,0 l/m² 2 min 307 W/m² 25,7 km/h (4 Bft) 97,87 %
28.03.2026 15:16 10,2 °C 12,8 °C 6,7 °C 67 % 1019,8 hPa 0,0 l/m² 2 min 311 W/m² 12,9 km/h (3 Bft) 97,87 %
28.03.2026 15:18 10,3 °C 12,8 °C 6,7 °C 67 % 1019,7 hPa 0,0 l/m² 2 min 329 W/m² 19,3 km/h (3 Bft) 97,37 %
28.03.2026 15:20 10,3 °C 13,3 °C 6,7 °C 67 % 1019,8 hPa 0,0 l/m² 2 min 349 W/m² 19,3 km/h (3 Bft) 97,87 %
28.03.2026 15:22 10,3 °C 12,8 °C 6,7 °C 66 % 1019,8 hPa 0,0 l/m² 2 min 402 W/m² 32,2 km/h (5 Bft) 100,00 %
28.03.2026 15:24 10,4 °C 13,3 °C 6,7 °C 66 % 1019,8 hPa 0,0 l/m² 2 min 473 W/m² 25,7 km/h (4 Bft) 100,00 %
28.03.2026 15:26 10,5 °C 12,8 °C 6,7 °C 66 % 1019,8 hPa 0,0 l/m² 2 min 399 W/m² 29,0 km/h (5 Bft) 100,00 %
28.03.2026 15:28 10,6 °C 13,9 °C 6,7 °C 66 % 1019,7 hPa 0,0 l/m² 2 min 398 W/m² 19,3 km/h (3 Bft) 100,00 %
28.03.2026 15:30 10,7 °C 14,4 °C 7,2 °C 66 % 1019,8 hPa 0,0 l/m² 2 min 415 W/m² 16,1 km/h (3 Bft) 100,00 %
28.03.2026 15:32 10,8 °C 16,1 °C 7,2 °C 67 % 1019,8 hPa 0,0 l/m² 2 min 587 W/m² 32,2 km/h (5 Bft) 100,00 %
28.03.2026 15:34 11,1 °C 16,7 °C 7,8 °C 67 % 1019,8 hPa 0,0 l/m² 2 min 657 W/m² 22,5 km/h (4 Bft) 97,87 %
28.03.2026 15:36 11,3 °C 17,2 °C 8,3 °C 68 % 1019,8 hPa 0,0 l/m² 2 min 614 W/m² 29,0 km/h (5 Bft) 100,00 %
28.03.2026 15:38 11,4 °C 17,2 °C 8,3 °C 67 % 1019,9 hPa 0,0 l/m² 2 min 595 W/m² 29,0 km/h (5 Bft) 100,00 %
28.03.2026 15:40 11,6 °C 16,1 °C 8,3 °C 64 % 1019,8 hPa 0,0 l/m² 2 min 603 W/m² 32,2 km/h (5 Bft) 96,00 %
28.03.2026 15:42 11,6 °C 16,1 °C 8,3 °C 63 % 1019,8 hPa 0,0 l/m² 2 min 605 W/m² 32,2 km/h (5 Bft) 100,00 %
28.03.2026 15:44 11,6 °C 15,0 °C 8,3 °C 62 % 1019,9 hPa 0,0 l/m² 2 min 605 W/m² 32,2 km/h (5 Bft) 100,00 %
28.03.2026 15:46 11,6 °C 15,6 °C 7,8 °C 62 % 1019,9 hPa 0,0 l/m² 2 min 574 W/m² 22,5 km/h (4 Bft) 97,87 %
28.03.2026 15:48 11,7 °C 15,6 °C 7,8 °C 61 % 1019,9 hPa 0,0 l/m² 2 min 503 W/m² 29,0 km/h (5 Bft) 100,00 %
28.03.2026 15:50 11,6 °C 15,6 °C 7,8 °C 60 % 1020,0 hPa 0,0 l/m² 2 min 493 W/m² 45,1 km/h (6 Bft) 97,87 %
28.03.2026 15:52 11,6 °C 15,6 °C 7,8 °C 58 % 1019,9 hPa 0,0 l/m² 2 min 493 W/m² 19,3 km/h (3 Bft) 100,00 %
28.03.2026 15:54 11,6 °C 15,6 °C 7,8 °C 57 % 1019,9 hPa 0,0 l/m² 2 min 502 W/m² 51,5 km/h (7 Bft) 100,00 %
28.03.2026 15:56 11,6 °C 15,0 °C 7,8 °C 57 % 1019,9 hPa 0,0 l/m² 2 min 470 W/m² 35,4 km/h (5 Bft) 100,00 %
28.03.2026 15:58 11,6 °C 13,9 °C 7,8 °C 57 % 1020,0 hPa 0,0 l/m² 2 min 485 W/m² 38,6 km/h (5 Bft) 100,00 %
28.03.2026 16:00 11,4 °C 12,8 °C 7,2 °C 58 % 1020,0 hPa 0,0 l/m² 2 min 419 W/m² 35,4 km/h (5 Bft) 100,00 %
28.03.2026 16:02 11,2 °C 11,7 °C 6,7 °C 57 % 1020,0 hPa 0,0 l/m² 0 min 182 W/m² 41,8 km/h (6 Bft) 95,74 %
28.03.2026 16:04 10,9 °C 10,6 °C 6,1 °C 57 % 1020,1 hPa 0,0 l/m² 0 min 81 W/m² 29,0 km/h (5 Bft) 100,00 %
28.03.2026 16:06 10,7 °C 10,0 °C 6,1 °C 58 % 1020,1 hPa 0,0 l/m² 0 min 67 W/m² 41,8 km/h (6 Bft) 100,00 %
28.03.2026 16:08 10,5 °C 9,4 °C 5,6 °C 58 % 1020,1 hPa 0,0 l/m² 0 min 64 W/m² 38,6 km/h (5 Bft) 100,00 %
28.03.2026 16:10 10,3 °C 9,4 °C 5,6 °C 59 % 1020,2 hPa 0,0 l/m² 0 min 68 W/m² 25,7 km/h (4 Bft) 100,00 %
28.03.2026 16:12 10,1 °C 11,1 °C 5,6 °C 59 % 1020,1 hPa 0,0 l/m² 2 min 257 W/m² 29,0 km/h (5 Bft) 100,00 %
28.03.2026 16:14 10,1 °C 12,8 °C 5,6 °C 60 % 1020,2 hPa 0,0 l/m² 2 min 422 W/m² 22,5 km/h (4 Bft) 97,87 %
28.03.2026 16:16 10,2 °C 13,3 °C 5,6 °C 61 % 1020,1 hPa 0,0 l/m² 2 min 420 W/m² 16,1 km/h (3 Bft) 100,00 %
28.03.2026 16:18 10,2 °C 13,9 °C 5,6 °C 60 % 1020,1 hPa 0,0 l/m² 2 min 424 W/m² 25,7 km/h (4 Bft) 100,00 %
28.03.2026 16:20 10,3 °C 13,9 °C 5,6 °C 59 % 1020,1 hPa 0,0 l/m² 2 min 414 W/m² 25,7 km/h (4 Bft) 100,00 %
28.03.2026 16:22 10,4 °C 14,4 °C 6,1 °C 60 % 1020,2 hPa 0,0 l/m² 2 min 405 W/m² 45,1 km/h (6 Bft) 100,00 %
28.03.2026 16:24 10,6 °C 14,4 °C 6,1 °C 60 % 1020,1 hPa 0,0 l/m² 2 min 401 W/m² 22,5 km/h (4 Bft) 97,37 %
28.03.2026 16:26 10,6 °C 13,9 °C 6,1 °C 60 % 1020,1 hPa 0,0 l/m² 2 min 396 W/m² 35,4 km/h (5 Bft) 98,11 %
28.03.2026 16:28 10,6 °C 13,9 °C 6,1 °C 59 % 1020,1 hPa 0,0 l/m² 2 min 387 W/m² 29,0 km/h (5 Bft) 100,00 %
28.03.2026 16:30 10,7 °C 13,9 °C 6,1 °C 60 % 1020,1 hPa 0,0 l/m² 2 min 379 W/m² 25,7 km/h (4 Bft) 97,87 %
28.03.2026 16:32 10,7 °C 13,9 °C 6,1 °C 61 % 1020,1 hPa 0,0 l/m² 2 min 376 W/m² 25,7 km/h (4 Bft) 100,00 %
28.03.2026 16:34 10,7 °C 13,3 °C 6,1 °C 60 % 1020,1 hPa 0,0 l/m² 2 min 365 W/m² 29,0 km/h (5 Bft) 97,87 %
28.03.2026 16:36 10,8 °C 13,9 °C 6,1 °C 61 % 1020,2 hPa 0,0 l/m² 2 min 356 W/m² 25,7 km/h (4 Bft) 97,87 %
28.03.2026 16:38 10,8 °C 14,4 °C 6,7 °C 60 % 1020,3 hPa 0,0 l/m² 2 min 353 W/m² 29,0 km/h (5 Bft) 98,11 %
28.03.2026 16:40 10,8 °C 14,4 °C 6,1 °C 60 % 1020,3 hPa 0,0 l/m² 2 min 347 W/m² 22,5 km/h (4 Bft) 97,87 %
28.03.2026 16:42 10,8 °C 14,4 °C 6,7 °C 58 % 1020,3 hPa 0,0 l/m² 2 min 343 W/m² 35,4 km/h (5 Bft) 98,00 %
28.03.2026 16:44 10,8 °C 13,9 °C 6,7 °C 56 % 1020,3 hPa 0,0 l/m² 2 min 340 W/m² 38,6 km/h (5 Bft) 97,87 %
28.03.2026 16:46 10,8 °C 13,9 °C 6,7 °C 56 % 1020,4 hPa 0,0 l/m² 2 min 331 W/m² 25,7 km/h (4 Bft) 97,37 %
28.03.2026 16:48 10,8 °C 13,9 °C 6,7 °C 56 % 1020,4 hPa 0,0 l/m² 2 min 327 W/m² 25,7 km/h (4 Bft) 96,23 %
28.03.2026 16:50 10,7 °C 13,9 °C 6,7 °C 57 % 1020,4 hPa 0,0 l/m² 2 min 324 W/m² 41,8 km/h (6 Bft) 97,87 %
28.03.2026 16:52 10,7 °C 13,9 °C 6,7 °C 58 % 1020,5 hPa 0,0 l/m² 2 min 308 W/m² 35,4 km/h (5 Bft) 98,00 %
28.03.2026 16:54 10,7 °C 12,2 °C 6,7 °C 58 % 1020,5 hPa 0,0 l/m² 2 min 216 W/m² 22,5 km/h (4 Bft) 97,37 %
28.03.2026 16:56 10,6 °C 11,1 °C 6,1 °C 58 % 1020,5 hPa 0,0 l/m² 0 min 77 W/m² 32,2 km/h (5 Bft) 97,87 %
28.03.2026 16:58 10,4 °C 10,6 °C 6,1 °C 57 % 1020,6 hPa 0,0 l/m² 0 min 106 W/m² 19,3 km/h (3 Bft) 98,00 %
28.03.2026 17:00 10,2 °C 9,4 °C 5,6 °C 58 % 1020,6 hPa 0,0 l/m² 0 min 63 W/m² 22,5 km/h (4 Bft) 97,96 %
28.03.2026 17:02 10,1 °C 9,4 °C 5,6 °C 59 % 1020,6 hPa 0,0 l/m² 0 min 51 W/m² 22,5 km/h (4 Bft) 97,22 %
28.03.2026 17:04 9,9 °C 10,0 °C 5,0 °C 60 % 1020,7 hPa 0,0 l/m² 2 min 167 W/m² 22,5 km/h (4 Bft) 98,11 %
28.03.2026 17:06 9,8 °C 10,0 °C 5,0 °C 60 % 1020,7 hPa 0,0 l/m² 2 min 262 W/m² 35,4 km/h (5 Bft) 97,83 %
28.03.2026 17:08 9,8 °C 10,0 °C 5,6 °C 61 % 1020,7 hPa 0,0 l/m² 2 min 221 W/m² 25,7 km/h (4 Bft) 95,74 %
28.03.2026 17:10 9,7 °C 9,4 °C 5,0 °C 61 % 1020,8 hPa 0,0 l/m² 0 min 64 W/m² 25,7 km/h (4 Bft) 97,87 %
28.03.2026 17:12 9,6 °C 8,9 °C 5,0 °C 61 % 1020,8 hPa 0,0 l/m² 0 min 49 W/m² 32,2 km/h (5 Bft) 95,74 %
28.03.2026 17:14 9,6 °C 8,9 °C 5,0 °C 60 % 1020,8 hPa 0,0 l/m² 0 min 44 W/m² 29,0 km/h (5 Bft) 94,00 %
28.03.2026 17:16 9,4 °C 8,9 °C 5,0 °C 61 % 1020,9 hPa 0,0 l/m² 0 min 64 W/m² 22,5 km/h (4 Bft) 95,74 %
28.03.2026 17:18 9,4 °C 8,9 °C 5,0 °C 62 % 1020,9 hPa 0,0 l/m² 2 min 172 W/m² 22,5 km/h (4 Bft) 95,74 %
28.03.2026 17:20 9,4 °C 8,9 °C 5,0 °C 62 % 1020,9 hPa 0,0 l/m² 0 min 51 W/m² 32,2 km/h (5 Bft) 95,74 %
28.03.2026 17:22 9,3 °C 8,9 °C 5,0 °C 62 % 1020,9 hPa 0,0 l/m² 0 min 91 W/m² 25,7 km/h (4 Bft) 97,87 %
28.03.2026 17:24 9,2 °C 8,9 °C 5,0 °C 62 % 1021,0 hPa 0,0 l/m² 2 min 129 W/m² 25,7 km/h (4 Bft) 96,00 %
28.03.2026 17:26 9,2 °C 9,4 °C 5,0 °C 62 % 1021,0 hPa 0,0 l/m² 0 min 100 W/m² 29,0 km/h (5 Bft) 97,87 %
28.03.2026 17:28 9,2 °C 9,4 °C 5,0 °C 63 % 1020,9 hPa 0,0 l/m² 2 min 171 W/m² 19,3 km/h (3 Bft) 94,74 %
28.03.2026 17:30 9,2 °C 10,0 °C 5,6 °C 62 % 1021,0 hPa 0,0 l/m² 2 min 173 W/m² 29,0 km/h (5 Bft) 98,11 %
28.03.2026 17:32 9,2 °C 10,0 °C 5,6 °C 62 % 1021,0 hPa 0,0 l/m² 2 min 151 W/m² 35,4 km/h (5 Bft) 95,74 %
28.03.2026 17:34 9,3 °C 9,4 °C 5,6 °C 62 % 1021,0 hPa 0,0 l/m² 0 min 61 W/m² 25,7 km/h (4 Bft) 96,00 %
28.03.2026 17:36 9,2 °C 9,4 °C 5,6 °C 62 % 1021,0 hPa 0,0 l/m² 2 min 106 W/m² 19,3 km/h (3 Bft) 97,37 %
28.03.2026 17:38 9,2 °C 10,0 °C 5,6 °C 62 % 1021,1 hPa 0,0 l/m² 2 min 152 W/m² 29,0 km/h (5 Bft) 95,74 %
28.03.2026 17:40 9,2 °C 10,0 °C 5,6 °C 62 % 1021,1 hPa 0,0 l/m² 2 min 142 W/m² 35,4 km/h (5 Bft) 96,00 %
28.03.2026 17:42 9,3 °C 10,0 °C 5,6 °C 63 % 1021,2 hPa 0,0 l/m² 2 min 135 W/m² 29,0 km/h (5 Bft) 96,00 %
28.03.2026 17:44 9,3 °C 9,4 °C 5,6 °C 64 % 1021,2 hPa 0,0 l/m² 2 min 127 W/m² 29,0 km/h (5 Bft) 95,74 %
28.03.2026 17:46 9,3 °C 9,4 °C 5,6 °C 65 % 1021,2 hPa 0,0 l/m² 2 min 117 W/m² 32,2 km/h (5 Bft) 95,74 %
28.03.2026 17:48 9,2 °C 9,4 °C 5,0 °C 66 % 1021,3 hPa 0,0 l/m² 2 min 111 W/m² 19,3 km/h (3 Bft) 95,74 %
28.03.2026 17:50 9,2 °C 8,9 °C 5,0 °C 67 % 1021,3 hPa 0,0 l/m² 2 min 106 W/m² 25,7 km/h (4 Bft) 95,74 %
28.03.2026 17:52 9,2 °C 8,9 °C 5,0 °C 67 % 1021,3 hPa 0,0 l/m² 2 min 104 W/m² 29,0 km/h (5 Bft) 93,62 %
28.03.2026 17:54 9,1 °C 8,9 °C 5,0 °C 68 % 1021,4 hPa 0,0 l/m² 2 min 102 W/m² 22,5 km/h (4 Bft) 97,87 %
28.03.2026 17:56 9,1 °C 8,9 °C 5,0 °C 68 % 1021,4 hPa 0,0 l/m² 2 min 100 W/m² 22,5 km/h (4 Bft) 97,87 %
28.03.2026 17:58 9,1 °C 8,9 °C 4,4 °C 68 % 1021,4 hPa 0,0 l/m² 2 min 97 W/m² 19,3 km/h (3 Bft) 97,37 %
28.03.2026 18:00 9,0 °C 8,9 °C 4,4 °C 68 % 1021,5 hPa 0,0 l/m² 2 min 94 W/m² 25,7 km/h (4 Bft) 97,87 %
28.03.2026 18:02 9,0 °C 8,9 °C 4,4 °C 68 % 1021,5 hPa 0,0 l/m² 2 min 91 W/m² 12,9 km/h (3 Bft) 96,23 %
28.03.2026 18:04 8,9 °C 8,3 °C 4,4 °C 68 % 1021,5 hPa 0,0 l/m² 2 min 81 W/m² 25,7 km/h (4 Bft) 94,74 %
28.03.2026 18:06 8,9 °C 8,3 °C 4,4 °C 68 % 1021,5 hPa 0,0 l/m² 0 min 50 W/m² 22,5 km/h (4 Bft) 96,55 %
28.03.2026 18:08 8,8 °C 8,3 °C 4,4 °C 67 % 1021,6 hPa 0,0 l/m² 0 min 40 W/m² 25,7 km/h (4 Bft) 97,87 %
28.03.2026 18:10 8,8 °C 7,8 °C 4,4 °C 67 % 1021,6 hPa 0,0 l/m² 0 min 34 W/m² 12,9 km/h (3 Bft) 97,87 %
28.03.2026 18:12 8,7 °C 7,8 °C 3,9 °C 68 % 1021,6 hPa 0,0 l/m² 0 min 30 W/m² 12,9 km/h (3 Bft) 97,44 %
28.03.2026 18:14 8,6 °C 7,8 °C 3,9 °C 67 % 1021,7 hPa 0,0 l/m² 0 min 27 W/m² 16,1 km/h (3 Bft) 95,74 %
28.03.2026 18:16 8,5 °C 7,2 °C 3,9 °C 67 % 1021,7 hPa 0,0 l/m² 0 min 25 W/m² 22,5 km/h (4 Bft) 97,87 %
28.03.2026 18:18 8,4 °C 7,2 °C 3,9 °C 67 % 1021,7 hPa 0,0 l/m² 0 min 25 W/m² 16,1 km/h (3 Bft) 98,08 %
28.03.2026 18:20 8,3 °C 7,2 °C 3,9 °C 66 % 1021,7 hPa 0,0 l/m² 0 min 25 W/m² 25,7 km/h (4 Bft) 97,62 %
28.03.2026 18:22 8,2 °C 7,2 °C 3,3 °C 66 % 1021,8 hPa 0,0 l/m² 0 min 25 W/m² 19,3 km/h (3 Bft) 95,74 %
28.03.2026 18:24 8,1 °C 7,2 °C 3,3 °C 67 % 1021,9 hPa 0,0 l/m² 0 min 24 W/m² 22,5 km/h (4 Bft) 97,87 %
28.03.2026 18:26 8,1 °C 7,2 °C 3,3 °C 67 % 1021,9 hPa 0,0 l/m² 0 min 23 W/m² 16,1 km/h (3 Bft) 95,74 %
28.03.2026 18:28 8,0 °C 7,2 °C 3,3 °C 67 % 1022,0 hPa 0,0 l/m² 0 min 22 W/m² 16,1 km/h (3 Bft) 97,87 %
28.03.2026 18:30 7,9 °C 6,7 °C 3,3 °C 67 % 1022,0 hPa 0,0 l/m² 0 min 21 W/m² 12,9 km/h (3 Bft) 98,15 %
28.03.2026 18:32 7,8 °C 6,7 °C 3,3 °C 67 % 1022,1 hPa 0,0 l/m² 0 min 19 W/m² 25,7 km/h (4 Bft) 97,37 %
28.03.2026 18:34 7,8 °C 6,7 °C 3,3 °C 67 % 1022,1 hPa 0,0 l/m² 0 min 19 W/m² 12,9 km/h (3 Bft) 100,00 %
28.03.2026 18:36 7,7 °C 6,7 °C 3,3 °C 67 % 1022,1 hPa 0,0 l/m² 0 min 18 W/m² 9,7 km/h (2 Bft) 100,00 %
28.03.2026 18:38 7,7 °C 6,7 °C 3,3 °C 67 % 1022,1 hPa 0,0 l/m² 0 min 16 W/m² 9,7 km/h (2 Bft) 100,00 %
28.03.2026 18:40 7,6 °C 6,7 °C 3,3 °C 67 % 1022,1 hPa 0,0 l/m² 0 min 16 W/m² 12,9 km/h (3 Bft) 97,87 %
28.03.2026 18:42 7,6 °C 6,7 °C 2,8 °C 67 % 1022,2 hPa 0,0 l/m² 0 min 14 W/m² 16,1 km/h (3 Bft) 100,00 %
28.03.2026 18:44 7,6 °C 6,7 °C 2,8 °C 68 % 1022,2 hPa 0,0 l/m² 0 min 13 W/m² 9,7 km/h (2 Bft) 100,00 %
28.03.2026 18:46 7,5 °C 6,7 °C 2,8 °C 68 % 1022,2 hPa 0,0 l/m² 0 min 12 W/m² 12,9 km/h (3 Bft) 100,00 %
28.03.2026 18:48 7,4 °C 6,1 °C 2,8 °C 69 % 1022,2 hPa 0,0 l/m² 0 min 11 W/m² 9,7 km/h (2 Bft) 97,87 %
28.03.2026 18:50 7,4 °C 6,1 °C 2,8 °C 69 % 1022,2 hPa 0,0 l/m² 0 min 10 W/m² 12,9 km/h (3 Bft) 100,00 %
28.03.2026 18:52 7,3 °C 6,1 °C 2,8 °C 69 % 1022,4 hPa 0,0 l/m² 0 min 8 W/m² 12,9 km/h (3 Bft) 98,00 %
28.03.2026 18:54 7,3 °C 6,1 °C 2,8 °C 70 % 1022,3 hPa 0,0 l/m² 0 min 6 W/m² 12,9 km/h (3 Bft) 100,00 %
28.03.2026 18:56 7,3 °C 6,1 °C 2,8 °C 70 % 1022,3 hPa 0,0 l/m² 0 min 5 W/m² 12,9 km/h (3 Bft) 100,00 %
28.03.2026 18:58 7,2 °C 6,1 °C 2,8 °C 70 % 1022,4 hPa 0,0 l/m² 0 min 5 W/m² 12,9 km/h (3 Bft) 100,00 %
28.03.2026 19:00 7,2 °C 6,1 °C 2,8 °C 70 % 1022,4 hPa 0,0 l/m² 0 min 1 W/m² 9,7 km/h (2 Bft) 100,00 %
28.03.2026 19:02 7,1 °C 6,1 °C 2,8 °C 71 % 1022,4 hPa 0,0 l/m² 0 min 0 W/m² 16,1 km/h (3 Bft) 97,87 %
28.03.2026 19:04 7,1 °C 6,1 °C 2,8 °C 71 % 1022,5 hPa 0,0 l/m² 0 min 0 W/m² 12,9 km/h (3 Bft) 98,00 %
28.03.2026 19:06 7,1 °C 5,6 °C 2,2 °C 71 % 1022,6 hPa 0,0 l/m² 0 min 0 W/m² 9,7 km/h (2 Bft) 97,87 %
28.03.2026 19:08 7,1 °C 5,6 °C 2,2 °C 71 % 1022,7 hPa 0,0 l/m² 0 min 0 W/m² 6,4 km/h (2 Bft) 100,00 %
28.03.2026 19:10 7,0 °C 5,6 °C 2,2 °C 72 % 1022,7 hPa 0,0 l/m² 0 min 0 W/m² 3,2 km/h (1 Bft) 100,00 %
28.03.2026 19:12 6,9 °C 5,6 °C 2,2 °C 72 % 1022,7 hPa 0,0 l/m² 0 min 0 W/m² 6,4 km/h (2 Bft) 100,00 %
28.03.2026 19:14 6,9 °C 5,6 °C 2,2 °C 72 % 1022,8 hPa 0,0 l/m² 0 min 0 W/m² 6,4 km/h (2 Bft) 98,00 %
28.03.2026 19:16 6,8 °C 5,6 °C 2,2 °C 73 % 1022,8 hPa 0,0 l/m² 0 min 0 W/m² 6,4 km/h (2 Bft) 97,37 %
28.03.2026 19:18 6,8 °C 5,6 °C 2,2 °C 73 % 1022,8 hPa 0,0 l/m² 0 min 0 W/m² 6,4 km/h (2 Bft) 97,87 %
28.03.2026 19:20 6,7 °C 5,6 °C 2,2 °C 74 % 1022,9 hPa 0,0 l/m² 0 min 0 W/m² 6,4 km/h (2 Bft) 97,87 %
28.03.2026 19:22 6,6 °C 5,6 °C 2,2 °C 74 % 1022,9 hPa 0,0 l/m² 0 min 0 W/m² 6,4 km/h (2 Bft) 97,87 %
28.03.2026 19:24 6,6 °C 5,0 °C 1,7 °C 74 % 1022,9 hPa 0,0 l/m² 0 min 0 W/m² 3,2 km/h (1 Bft) 97,87 %
28.03.2026 19:26 6,5 °C 5,0 °C 1,7 °C 74 % 1023,0 hPa 0,0 l/m² 0 min 0 W/m² 6,4 km/h (2 Bft) 97,87 %
28.03.2026 19:28 6,5 °C 5,0 °C 1,7 °C 75 % 1023,0 hPa 0,0 l/m² 0 min 0 W/m² 6,4 km/h (2 Bft) 95,92 %
28.03.2026 19:30 6,4 °C 5,0 °C 1,7 °C 75 % 1023,0 hPa 0,0 l/m² 0 min 0 W/m² 6,4 km/h (2 Bft) 95,74 %
28.03.2026 19:32 6,4 °C 5,0 °C 1,7 °C 75 % 1023,1 hPa 0,0 l/m² 0 min 0 W/m² 6,4 km/h (2 Bft) 98,00 %
28.03.2026 19:34 6,3 °C 5,0 °C 1,7 °C 75 % 1023,2 hPa 0,0 l/m² 0 min 0 W/m² 6,4 km/h (2 Bft) 41,18 %
28.03.2026 19:36 6,3 °C 5,0 °C 1,7 °C 76 % 1023,2 hPa 0,0 l/m² 0 min 0 W/m² 6,4 km/h (2 Bft) 96,30 %
28.03.2026 19:38 6,2 °C 5,0 °C 1,7 °C 76 % 1023,3 hPa 0,0 l/m² 0 min 0 W/m² 19,3 km/h (3 Bft) 95,74 %
28.03.2026 19:40 6,2 °C 5,0 °C 1,7 °C 76 % 1023,3 hPa 0,0 l/m² 0 min 0 W/m² 12,9 km/h (3 Bft) 96,00 %
28.03.2026 19:42 6,1 °C 5,0 °C 1,7 °C 76 % 1023,3 hPa 0,0 l/m² 0 min 0 W/m² 6,4 km/h (2 Bft) 93,33 %
28.03.2026 19:44 6,1 °C 5,0 °C 1,7 °C 76 % 1023,3 hPa 0,0 l/m² 0 min 0 W/m² 6,4 km/h (2 Bft) 94,00 %
28.03.2026 19:46 6,1 °C 5,0 °C 1,7 °C 76 % 1023,3 hPa 0,0 l/m² 0 min 0 W/m² 6,4 km/h (2 Bft) 95,74 %
28.03.2026 19:48 6,0 °C 5,0 °C 1,7 °C 76 % 1023,3 hPa 0,0 l/m² 0 min 0 W/m² 3,2 km/h (1 Bft) 97,37 %
28.03.2026 19:50 6,0 °C 5,0 °C 1,7 °C 76 % 1023,4 hPa 0,0 l/m² 0 min 0 W/m² 9,7 km/h (2 Bft) 96,00 %
28.03.2026 19:52 5,9 °C 5,0 °C 1,7 °C 76 % 1023,4 hPa 0,0 l/m² 0 min 0 W/m² 6,4 km/h (2 Bft) 97,87 %
28.03.2026 19:54 5,9 °C 5,0 °C 1,7 °C 76 % 1023,5 hPa 0,0 l/m² 0 min 0 W/m² 3,2 km/h (1 Bft) 98,00 %
28.03.2026 19:56 5,9 °C 5,0 °C 1,7 °C 76 % 1023,5 hPa 0,0 l/m² 0 min 0 W/m² 0,0 km/h (0 Bft) 97,87 %
28.03.2026 19:58 5,9 °C 5,0 °C 1,1 °C 76 % 1023,5 hPa 0,0 l/m² 0 min 0 W/m² 0,0 km/h (0 Bft) 94,00 %
28.03.2026 20:00 5,8 °C 4,4 °C 1,1 °C 76 % 1023,5 hPa 0,0 l/m² 0 min 0 W/m² 0,0 km/h (0 Bft) 95,74 %
28.03.2026 20:02 5,8 °C 4,4 °C 1,1 °C 76 % 1023,6 hPa 0,0 l/m² 0 min 0 W/m² 0,0 km/h (0 Bft) 97,37 %
28.03.2026 20:04 5,8 °C 4,4 °C 1,1 °C 76 % 1023,6 hPa 0,0 l/m² 0 min 0 W/m² 0,0 km/h (0 Bft) 97,87 %
28.03.2026 20:06 5,7 °C 4,4 °C 1,1 °C 76 % 1023,6 hPa 0,0 l/m² 0 min 0 W/m² 0,0 km/h (0 Bft) 94,92 %
28.03.2026 20:08 5,7 °C 4,4 °C 1,1 °C 76 % 1023,7 hPa 0,0 l/m² 0 min 0 W/m² 0,0 km/h (0 Bft) 94,29 %
28.03.2026 20:10 5,7 °C 3,9 °C 0,6 °C 76 % 1023,7 hPa 0,0 l/m² 0 min 0 W/m² 0,0 km/h (0 Bft) 96,23 %
28.03.2026 20:12 5,6 °C 3,9 °C 0,6 °C 76 % 1023,7 hPa 0,0 l/m² 0 min 0 W/m² 0,0 km/h (0 Bft) 95,24 %
28.03.2026 20:14 5,6 °C 3,9 °C 0,6 °C 76 % 1023,7 hPa 0,0 l/m² 0 min 0 W/m² 0,0 km/h (0 Bft) 95,74 %
28.03.2026 20:16 5,6 °C 3,9 °C 0,6 °C 76 % 1023,7 hPa 0,0 l/m² 0 min 0 W/m² 0,0 km/h (0 Bft) 95,74 %
28.03.2026 20:18 5,5 °C 3,9 °C 0,6 °C 77 % 1023,8 hPa 0,0 l/m² 0 min 0 W/m² 0,0 km/h (0 Bft) 93,62 %
28.03.2026 20:20 5,4 °C 3,9 °C 0,6 °C 77 % 1023,8 hPa 0,0 l/m² 0 min 0 W/m² 3,2 km/h (1 Bft) 95,74 %
28.03.2026 20:22 5,4 °C 3,9 °C 0,6 °C 77 % 1023,9 hPa 0,0 l/m² 0 min 0 W/m² 0,0 km/h (0 Bft) 95,92 %
28.03.2026 20:24 5,3 °C 3,9 °C 0,6 °C 77 % 1023,9 hPa 0,0 l/m² 0 min 0 W/m² 0,0 km/h (0 Bft) 93,62 %
28.03.2026 20:26 5,3 °C 3,9 °C 0,6 °C 77 % 1023,9 hPa 0,0 l/m² 0 min 0 W/m² 3,2 km/h (1 Bft) 93,62 %
28.03.2026 20:28 5,3 °C 3,9 °C 0,6 °C 77 % 1023,9 hPa 0,0 l/m² 0 min 0 W/m² 6,4 km/h (2 Bft) 95,35 %
28.03.2026 20:30 5,2 °C 3,9 °C 0,6 °C 77 % 1023,9 hPa 0,0 l/m² 0 min 0 W/m² 3,2 km/h (1 Bft) 95,92 %
28.03.2026 20:32 5,2 °C 3,9 °C 0,6 °C 77 % 1023,9 hPa 0,0 l/m² 0 min 0 W/m² 0,0 km/h (0 Bft) 95,74 %
28.03.2026 20:34 5,2 °C 3,9 °C 0,6 °C 77 % 1024,0 hPa 0,0 l/m² 0 min 0 W/m² 0,0 km/h (0 Bft) 58,33 %
28.03.2026 20:36 5,1 °C 3,9 °C 0,6 °C 77 % 1023,9 hPa 0,0 l/m² 0 min 0 W/m² 0,0 km/h (0 Bft) 90,48 %
28.03.2026 20:38 5,1 °C 3,9 °C 0,6 °C 77 % 1024,0 hPa 0,0 l/m² 0 min 0 W/m² 3,2 km/h (1 Bft) 97,87 %
28.03.2026 20:40 5,1 °C 3,9 °C 0,6 °C 78 % 1023,9 hPa 0,0 l/m² 0 min 0 W/m² 3,2 km/h (1 Bft) 100,00 %
28.03.2026 20:42 5,0 °C 3,9 °C 0,6 °C 78 % 1024,0 hPa 0,0 l/m² 0 min 0 W/m² 0,0 km/h (0 Bft) 100,00 %
28.03.2026 20:44 5,0 °C 3,9 °C 0,6 °C 78 % 1024,0 hPa 0,0 l/m² 0 min 0 W/m² 0,0 km/h (0 Bft) 97,87 %
28.03.2026 20:46 4,9 °C 3,9 °C 0,6 °C 78 % 1024,0 hPa 0,0 l/m² 0 min 0 W/m² 0,0 km/h (0 Bft) 97,37 %
28.03.2026 20:48 4,9 °C 3,9 °C 0,6 °C 78 % 1024,0 hPa 0,0 l/m² 0 min 0 W/m² 0,0 km/h (0 Bft) 100,00 %
28.03.2026 20:50 4,9 °C 3,9 °C 0,6 °C 78 % 1024,1 hPa 0,0 l/m² 0 min 0 W/m² 0,0 km/h (0 Bft) 100,00 %
28.03.2026 20:52 4,8 °C 3,9 °C 0,0 °C 78 % 1024,1 hPa 0,0 l/m² 0 min 0 W/m² 0,0 km/h (0 Bft) 100,00 %
28.03.2026 20:54 4,8 °C 3,9 °C 0,0 °C 78 % 1024,1 hPa 0,0 l/m² 0 min 0 W/m² 0,0 km/h (0 Bft) 94,00 %
28.03.2026 20:56 4,8 °C 3,3 °C 0,0 °C 78 % 1024,1 hPa 0,0 l/m² 0 min 0 W/m² 0,0 km/h (0 Bft) 97,87 %
28.03.2026 20:58 4,8 °C 3,3 °C 0,0 °C 78 % 1024,1 hPa 0,0 l/m² 0 min 0 W/m² 0,0 km/h (0 Bft) 97,87 %
28.03.2026 21:00 4,8 °C 3,3 °C 0,0 °C 78 % 1024,1 hPa 0,0 l/m² 0 min 0 W/m² 0,0 km/h (0 Bft) 95,74 %
28.03.2026 21:02 4,7 °C 2,8 °C -0,6 °C 78 % 1024,1 hPa 0,0 l/m² 0 min 0 W/m² 0,0 km/h (0 Bft) 93,62 %
28.03.2026 21:04 4,7 °C 2,8 °C -0,6 °C 78 % 1024,1 hPa 0,0 l/m² 0 min 0 W/m² 0,0 km/h (0 Bft) 97,87 %
28.03.2026 21:06 4,7 °C 2,8 °C -0,6 °C 78 % 1024,1 hPa 0,0 l/m² 0 min 0 W/m² 0,0 km/h (0 Bft) 95,74 %
28.03.2026 21:08 4,6 °C 2,8 °C -0,6 °C 78 % 1024,1 hPa 0,0 l/m² 0 min 0 W/m² 0,0 km/h (0 Bft) 97,87 %
28.03.2026 21:10 4,6 °C 2,8 °C -0,6 °C 78 % 1024,1 hPa 0,0 l/m² 0 min 0 W/m² 0,0 km/h (0 Bft) 95,74 %
28.03.2026 21:12 4,6 °C 2,8 °C -0,6 °C 78 % 1024,2 hPa 0,0 l/m² 0 min 0 W/m² 0,0 km/h (0 Bft) 97,87 %
28.03.2026 21:14 4,5 °C 2,8 °C -0,6 °C 78 % 1024,1 hPa 0,0 l/m² 0 min 0 W/m² 0,0 km/h (0 Bft) 98,00 %
28.03.2026 21:16 4,5 °C 2,8 °C -0,6 °C 79 % 1024,2 hPa 0,0 l/m² 0 min 0 W/m² 0,0 km/h (0 Bft) 97,87 %
28.03.2026 21:18 4,4 °C 2,8 °C -0,6 °C 79 % 1024,2 hPa 0,0 l/m² 0 min 0 W/m² 0,0 km/h (0 Bft) 97,87 %
28.03.2026 21:20 4,4 °C 2,8 °C -0,6 °C 79 % 1024,2 hPa 0,0 l/m² 0 min 0 W/m² 0,0 km/h (0 Bft) 97,14 %
28.03.2026 21:22 4,3 °C 2,8 °C -0,6 °C 79 % 1024,3 hPa 0,0 l/m² 0 min 0 W/m² 0,0 km/h (0 Bft) 100,00 %
28.03.2026 21:24 4,3 °C 2,8 °C -0,6 °C 79 % 1024,2 hPa 0,0 l/m² 0 min 0 W/m² 0,0 km/h (0 Bft) 97,87 %
28.03.2026 21:26 4,3 °C 2,8 °C -0,6 °C 80 % 1024,3 hPa 0,0 l/m² 0 min 0 W/m² 3,2 km/h (1 Bft) 100,00 %
28.03.2026 21:28 4,2 °C 3,3 °C -0,6 °C 80 % 1024,4 hPa 0,0 l/m² 0 min 0 W/m² 6,4 km/h (2 Bft) 100,00 %
28.03.2026 21:30 4,2 °C 3,3 °C 0,0 °C 80 % 1024,3 hPa 0,0 l/m² 0 min 0 W/m² 9,7 km/h (2 Bft) 100,00 %
28.03.2026 21:32 4,3 °C 3,3 °C 0,0 °C 81 % 1024,4 hPa 0,0 l/m² 0 min 0 W/m² 9,7 km/h (2 Bft) 100,00 %
28.03.2026 21:34 4,3 °C 3,3 °C 0,0 °C 81 % 1024,4 hPa 0,0 l/m² 0 min 0 W/m² 6,4 km/h (2 Bft) 100,00 %
28.03.2026 21:36 4,3 °C 3,3 °C 0,0 °C 81 % 1024,4 hPa 0,0 l/m² 0 min 0 W/m² 9,7 km/h (2 Bft) 100,00 %
28.03.2026 21:38 4,3 °C 3,3 °C 0,0 °C 81 % 1024,4 hPa 0,0 l/m² 0 min 0 W/m² 6,4 km/h (2 Bft) 100,00 %
28.03.2026 21:40 4,3 °C 3,9 °C 0,0 °C 81 % 1024,5 hPa 0,0 l/m² 0 min 0 W/m² 6,4 km/h (2 Bft) 100,00 %
28.03.2026 21:42 4,3 °C 3,3 °C 0,0 °C 81 % 1024,6 hPa 0,0 l/m² 0 min 0 W/m² 9,7 km/h (2 Bft) 97,87 %
28.03.2026 21:44 4,3 °C 3,3 °C 0,0 °C 82 % 1024,6 hPa 0,0 l/m² 0 min 0 W/m² 6,4 km/h (2 Bft) 100,00 %
28.03.2026 21:46 4,3 °C 3,3 °C 0,6 °C 82 % 1024,6 hPa 0,0 l/m² 0 min 0 W/m² 6,4 km/h (2 Bft) 100,00 %
28.03.2026 21:48 4,3 °C 3,3 °C 0,6 °C 82 % 1024,7 hPa 0,0 l/m² 0 min 0 W/m² 6,4 km/h (2 Bft) 100,00 %
28.03.2026 21:50 4,3 °C 3,3 °C 0,0 °C 82 % 1024,7 hPa 0,0 l/m² 0 min 0 W/m² 3,2 km/h (1 Bft) 97,87 %
28.03.2026 21:52 4,3 °C 3,3 °C 0,0 °C 82 % 1024,7 hPa 0,0 l/m² 0 min 0 W/m² 3,2 km/h (1 Bft) 100,00 %
28.03.2026 21:54 4,3 °C 3,3 °C 0,0 °C 82 % 1024,7 hPa 0,0 l/m² 0 min 0 W/m² 3,2 km/h (1 Bft) 100,00 %
28.03.2026 21:56 4,3 °C 3,3 °C 0,0 °C 82 % 1024,8 hPa 0,0 l/m² 0 min 0 W/m² 3,2 km/h (1 Bft) 97,87 %
28.03.2026 21:58 4,3 °C 3,3 °C 0,0 °C 82 % 1024,8 hPa 0,0 l/m² 0 min 0 W/m² 0,0 km/h (0 Bft) 97,87 %
28.03.2026 22:00 4,3 °C 3,3 °C 0,0 °C 82 % 1024,8 hPa 0,0 l/m² 0 min 0 W/m² 0,0 km/h (0 Bft) 95,74 %
28.03.2026 22:02 4,3 °C 3,3 °C 0,0 °C 82 % 1024,8 hPa 0,0 l/m² 0 min 0 W/m² 6,4 km/h (2 Bft) 97,87 %
28.03.2026 22:04 4,3 °C 3,3 °C 0,0 °C 82 % 1024,9 hPa 0,0 l/m² 0 min 0 W/m² 3,2 km/h (1 Bft) 97,62 %
28.03.2026 22:06 4,3 °C 3,3 °C 0,0 °C 83 % 1024,9 hPa 0,0 l/m² 0 min 0 W/m² 3,2 km/h (1 Bft) 98,04 %
28.03.2026 22:08 4,3 °C 3,3 °C 0,0 °C 83 % 1024,9 hPa 0,0 l/m² 0 min 0 W/m² 0,0 km/h (0 Bft) 97,87 %
28.03.2026 22:10 4,2 °C 3,3 °C 0,0 °C 83 % 1024,9 hPa 0,0 l/m² 0 min 0 W/m² 3,2 km/h (1 Bft) 95,74 %
28.03.2026 22:12 4,2 °C 3,3 °C 0,0 °C 83 % 1024,9 hPa 0,0 l/m² 0 min 0 W/m² 3,2 km/h (1 Bft) 95,74 %
28.03.2026 22:14 4,2 °C 3,3 °C 0,0 °C 83 % 1024,9 hPa 0,0 l/m² 0 min 0 W/m² 3,2 km/h (1 Bft) 97,87 %
28.03.2026 22:16 4,2 °C 3,3 °C 0,0 °C 83 % 1024,9 hPa 0,0 l/m² 0 min 0 W/m² 3,2 km/h (1 Bft) 97,87 %
28.03.2026 22:18 4,2 °C 3,3 °C 0,0 °C 83 % 1024,9 hPa 0,0 l/m² 0 min 0 W/m² 0,0 km/h (0 Bft) 97,37 %
28.03.2026 22:20 4,2 °C 3,3 °C 0,0 °C 84 % 1024,9 hPa 0,0 l/m² 0 min 0 W/m² 0,0 km/h (0 Bft) 95,74 %
28.03.2026 22:22 4,2 °C 3,3 °C 0,0 °C 84 % 1024,9 hPa 0,0 l/m² 0 min 0 W/m² 0,0 km/h (0 Bft) 95,74 %
28.03.2026 22:24 4,2 °C 3,3 °C 0,0 °C 84 % 1024,9 hPa 0,0 l/m² 0 min 0 W/m² 3,2 km/h (1 Bft) 97,87 %
28.03.2026 22:26 4,2 °C 3,3 °C 0,0 °C 84 % 1024,9 hPa 0,0 l/m² 0 min 0 W/m² 3,2 km/h (1 Bft) 95,74 %
28.03.2026 22:28 4,2 °C 3,3 °C 0,0 °C 84 % 1025,0 hPa 0,0 l/m² 0 min 0 W/m² 3,2 km/h (1 Bft) 97,87 %
28.03.2026 22:30 4,2 °C 3,3 °C 0,0 °C 84 % 1025,0 hPa 0,0 l/m² 0 min 0 W/m² 3,2 km/h (1 Bft) 95,74 %
28.03.2026 22:32 4,1 °C 3,3 °C 0,0 °C 84 % 1025,0 hPa 0,0 l/m² 0 min 0 W/m² 3,2 km/h (1 Bft) 95,74 %
28.03.2026 22:34 4,1 °C 3,3 °C 0,0 °C 84 % 1025,0 hPa 0,0 l/m² 0 min 0 W/m² 0,0 km/h (0 Bft) 98,00 %
28.03.2026 22:36 4,1 °C 3,3 °C 0,0 °C 85 % 1025,0 hPa 0,0 l/m² 0 min 0 W/m² 0,0 km/h (0 Bft) 97,87 %
28.03.2026 22:38 4,1 °C 3,3 °C 0,0 °C 85 % 1025,1 hPa 0,0 l/m² 0 min 0 W/m² 3,2 km/h (1 Bft) 97,87 %
28.03.2026 22:40 4,1 °C 3,3 °C 0,0 °C 85 % 1025,2 hPa 0,0 l/m² 0 min 0 W/m² 3,2 km/h (1 Bft) 97,87 %
28.03.2026 22:42 4,1 °C 3,3 °C 0,0 °C 85 % 1025,2 hPa 0,0 l/m² 0 min 0 W/m² 3,2 km/h (1 Bft) 97,87 %
28.03.2026 22:44 4,1 °C 3,3 °C 0,0 °C 85 % 1025,1 hPa 0,0 l/m² 0 min 0 W/m² 3,2 km/h (1 Bft) 98,00 %
28.03.2026 22:46 4,1 °C 3,3 °C 0,0 °C 85 % 1025,1 hPa 0,0 l/m² 0 min 0 W/m² 3,2 km/h (1 Bft) 97,87 %
28.03.2026 22:48 4,1 °C 2,8 °C -0,6 °C 85 % 1025,1 hPa 0,0 l/m² 0 min 0 W/m² 3,2 km/h (1 Bft) 97,87 %
28.03.2026 22:50 4,1 °C 2,8 °C -0,6 °C 85 % 1025,2 hPa 0,0 l/m² 0 min 0 W/m² 0,0 km/h (0 Bft) 97,87 %
28.03.2026 22:52 4,0 °C 2,8 °C -0,6 °C 85 % 1025,2 hPa 0,0 l/m² 0 min 0 W/m² 0,0 km/h (0 Bft) 95,65 %
28.03.2026 22:54 4,0 °C 2,8 °C -0,6 °C 86 % 1025,1 hPa 0,0 l/m² 0 min 0 W/m² 0,0 km/h (0 Bft) 97,87 %
28.03.2026 22:56 4,0 °C 2,8 °C -0,6 °C 86 % 1025,2 hPa 0,0 l/m² 0 min 0 W/m² 0,0 km/h (0 Bft) 97,87 %
28.03.2026 22:58 3,9 °C 2,8 °C -0,6 °C 86 % 1025,2 hPa 0,0 l/m² 0 min 0 W/m² 0,0 km/h (0 Bft) 100,00 %
28.03.2026 23:00 3,9 °C 2,8 °C -0,6 °C 86 % 1025,2 hPa 0,0 l/m² 0 min 0 W/m² 0,0 km/h (0 Bft) 100,00 %
28.03.2026 23:02 3,9 °C 2,8 °C -0,6 °C 86 % 1025,2 hPa 0,0 l/m² 0 min 0 W/m² 6,4 km/h (2 Bft) 97,83 %
28.03.2026 23:04 3,9 °C 3,3 °C -0,6 °C 86 % 1025,2 hPa 0,0 l/m² 0 min 0 W/m² 0,0 km/h (0 Bft) 97,87 %
28.03.2026 23:06 3,9 °C 3,3 °C 0,0 °C 86 % 1025,2 hPa 0,0 l/m² 0 min 0 W/m² 0,0 km/h (0 Bft) 100,00 %
28.03.2026 23:08 3,9 °C 3,3 °C 0,0 °C 87 % 1025,2 hPa 0,0 l/m² 0 min 0 W/m² 0,0 km/h (0 Bft) 100,00 %
28.03.2026 23:10 3,9 °C 3,3 °C 0,0 °C 87 % 1025,3 hPa 0,0 l/m² 0 min 0 W/m² 3,2 km/h (1 Bft) 100,00 %
28.03.2026 23:12 3,9 °C 3,3 °C 0,0 °C 87 % 1025,3 hPa 0,0 l/m² 0 min 0 W/m² 0,0 km/h (0 Bft) 100,00 %
28.03.2026 23:14 4,0 °C 3,3 °C 0,0 °C 87 % 1025,3 hPa 0,0 l/m² 0 min 0 W/m² 0,0 km/h (0 Bft) 51,11 %
28.03.2026 23:16 4,0 °C 3,3 °C 0,0 °C 87 % 1025,3 hPa 0,0 l/m² 0 min 0 W/m² 0,0 km/h (0 Bft) 97,62 %
28.03.2026 23:18 4,1 °C 3,9 °C 0,6 °C 88 % 1025,4 hPa 0,0 l/m² 0 min 0 W/m² 6,4 km/h (2 Bft) 100,00 %
28.03.2026 23:20 4,1 °C 3,9 °C 0,6 °C 88 % 1025,4 hPa 0,0 l/m² 0 min 0 W/m² 3,2 km/h (1 Bft) 97,87 %
28.03.2026 23:22 4,1 °C 3,9 °C 0,6 °C 88 % 1025,4 hPa 0,0 l/m² 0 min 0 W/m² 3,2 km/h (1 Bft) 97,87 %
28.03.2026 23:24 4,1 °C 3,9 °C 0,6 °C 88 % 1025,4 hPa 0,0 l/m² 0 min 0 W/m² 3,2 km/h (1 Bft) 98,00 %
28.03.2026 23:26 4,2 °C 3,9 °C 0,6 °C 88 % 1025,4 hPa 0,0 l/m² 0 min 0 W/m² 0,0 km/h (0 Bft) 98,00 %
28.03.2026 23:28 4,2 °C 3,9 °C 0,6 °C 88 % 1025,4 hPa 0,0 l/m² 0 min 0 W/m² 3,2 km/h (1 Bft) 95,74 %
28.03.2026 23:30 4,2 °C 3,9 °C 0,6 °C 88 % 1025,4 hPa 0,0 l/m² 0 min 0 W/m² 0,0 km/h (0 Bft) 98,00 %
28.03.2026 23:32 4,3 °C 3,9 °C 0,6 °C 88 % 1025,5 hPa 0,0 l/m² 0 min 0 W/m² 3,2 km/h (1 Bft) 97,87 %
28.03.2026 23:34 4,3 °C 3,9 °C 0,6 °C 88 % 1025,5 hPa 0,0 l/m² 0 min 0 W/m² 0,0 km/h (0 Bft) 97,37 %
28.03.2026 23:36 4,3 °C 3,9 °C 0,6 °C 89 % 1025,4 hPa 0,0 l/m² 0 min 0 W/m² 0,0 km/h (0 Bft) 97,87 %
28.03.2026 23:38 4,4 °C 3,9 °C 0,6 °C 89 % 1025,5 hPa 0,0 l/m² 0 min 0 W/m² 12,9 km/h (3 Bft) 97,87 %
28.03.2026 23:40 4,4 °C 3,9 °C 0,6 °C 89 % 1025,5 hPa 0,0 l/m² 0 min 0 W/m² 6,4 km/h (2 Bft) 98,00 %
28.03.2026 23:42 4,6 °C 3,9 °C 0,6 °C 89 % 1025,5 hPa 0,0 l/m² 0 min 0 W/m² 6,4 km/h (2 Bft) 97,87 %
28.03.2026 23:44 4,6 °C 4,4 °C 0,6 °C 89 % 1025,5 hPa 0,0 l/m² 0 min 0 W/m² 3,2 km/h (1 Bft) 97,87 %
28.03.2026 23:46 4,6 °C 4,4 °C 0,6 °C 89 % 1025,6 hPa 0,0 l/m² 0 min 0 W/m² 9,7 km/h (2 Bft) 95,74 %
28.03.2026 23:48 4,7 °C 4,4 °C 0,6 °C 89 % 1025,6 hPa 0,0 l/m² 0 min 0 W/m² 6,4 km/h (2 Bft) 96,00 %
28.03.2026 23:50 4,7 °C 4,4 °C 0,6 °C 89 % 1025,6 hPa 0,0 l/m² 0 min 0 W/m² 3,2 km/h (1 Bft) 97,87 %
28.03.2026 23:52 4,7 °C 4,4 °C 0,6 °C 89 % 1025,6 hPa 0,0 l/m² 0 min 0 W/m² 3,2 km/h (1 Bft) 97,87 %
28.03.2026 23:54 4,7 °C 4,4 °C 1,1 °C 89 % 1025,6 hPa 0,0 l/m² 0 min 0 W/m² 3,2 km/h (1 Bft) 97,37 %
28.03.2026 23:56 4,7 °C 4,4 °C 1,1 °C 89 % 1025,6 hPa 0,0 l/m² 0 min 0 W/m² 6,4 km/h (2 Bft) 97,87 %
28.03.2026 23:58 4,8 °C 4,4 °C 1,1 °C 89 % 1025,6 hPa 0,0 l/m² 0 min 0 W/m² 6,4 km/h (2 Bft) 93,62 %
_ Min-Zeit 22:58 21:02 21:02 16:44 06:06 - - - 19:56 19:34
Minimum _ 3,9 °C 2,8 °C -0,6 °C 56 % 1017,0 hPa - - - 0,0 km/h (0 Bft) 41,18 %
_ Max-Zeit 15:48 13:24 15:36 09:52 23:46 10:40 13:10 13:30 15:54 00:00
Maximum _ 11,7 °C 21,7 °C 8,3 °C 98 % 1025,6 hPa 0,5 l/m² 2 min 807 W/m² 51,5 km/h
N-NW (7 Bft)
100,00 %
Durchschnitt _ 6,8 °C 6,7 °C 2,3 °C 84 % 1020,0 hPa #16,3 l/m² #3:28 h 174 W/m² 12,6 km/h (3 Bft) 97,04 %
© 2026 W. Hausmann